I-15 : Desert Oasis Rest Stop Atmospheric Data: 06/24/2022 Summary  Detailed Graphs  Station List

  Temperature     Wind Precipitation Visibility
Timestamp Air Wet
Bulb
Dew-
point
24-hr
Max
24-hr
Min
Relative
Humidity
Atmospheric
Pressure
Avg
Speed
Avg
Dir
Spot
Speed
Spot
Dir
Max
Speed
Max
Dir
  Rate Situation Start End 1 hr 3 hr 6 hr 12 hr 24 hr   Situation
Date Time °F °F °F °F °F % in Hg mph ° mph ° mph ° Y/N in/hr text Date Time Date Time in in in in in mi text
06/24/2022 12:00 AM 83.48 x 46.94 103.64 56.84 28.0 x x x x x 8.28 SW No 0.000 Unidentified Slight     0.000 0.000 0.000 0.827 0.000 34.64 Unknown
06/24/2022 12:01 AM 83.48 x 46.94 103.64 56.84 28.0 x x x x x 8.28 SW No 0.000 Unidentified Slight     0.000 0.000 0.000 0.827 0.000 34.56 Unknown
06/24/2022 12:02 AM 83.66 x 45.14 103.64 56.84 26.0 x x x x x 8.28 SW No 0.000 Unidentified Slight     0.000 0.000 0.000 0.827 0.000 35.01 Unknown
06/24/2022 12:03 AM 83.84 x 46.22 103.64 56.84 27.0 x x x x x 8.28 SW No 0.000 Unidentified Slight     0.000 0.000 0.000 0.827 0.000 37.24 Unknown
06/24/2022 12:04 AM 83.66 x 46.04 103.64 56.84 27.0 x x x x x 8.28 SW No 0.000 Unidentified Slight     0.000 0.000 0.000 0.827 0.000 33.61 Unknown
06/24/2022 12:05 AM 83.66 x 46.04 103.64 56.84 27.0 x x x x x 8.28 SW No 0.000 Unidentified Slight     0.000 0.000 0.000 0.827 0.000 34.60 Unknown
06/24/2022 12:06 AM 83.48 x 46.94 103.64 56.84 28.0 x x x x x 8.28 SW No 0.000 Unidentified Slight     0.000 0.000 0.000 0.827 0.000 33.61 Unknown
06/24/2022 12:07 AM 83.48 x 46.94 103.64 56.84 28.0 x x x x x 8.28 SW No 0.000 Unidentified Slight     0.000 0.000 0.000 0.827 0.000 35.64 Unknown
06/24/2022 12:08 AM 83.30 x 46.76 103.64 56.84 28.0 x x x x x 8.05 SW No 0.000 Unidentified Slight     0.000 0.000 0.000 0.827 0.000 34.80 Unknown
06/24/2022 12:09 AM 83.12 x 46.58 103.64 56.84 28.0 x x x x x 6.26 SW No 0.000 Unidentified Slight     0.000 0.000 0.000 0.827 0.000 35.69 Unknown
06/24/2022 12:10 AM 82.94 x 47.30 103.64 56.84 29.0 x x x x x 5.82 SW No 0.000 Unidentified Slight     0.000 0.000 0.000 0.827 0.000 34.78 Unknown
06/24/2022 12:11 AM 82.94 x 46.40 103.64 56.84 28.0 x x x x x 5.59 SW No 0.000 Unidentified Slight     0.000 0.000 0.000 0.827 0.000 35.18 Unknown
06/24/2022 12:12 AM 82.94 x 47.30 103.64 56.84 29.0 x x x x x 5.59 SW No 0.000 Unidentified Slight     0.000 0.000 0.000 0.827 0.000 35.31 Unknown
06/24/2022 12:13 AM 82.76 x 47.30 103.64 56.84 29.0 x x x x x 5.59 SW No 0.000 Unidentified Slight     0.000 0.000 0.000 0.827 0.000 34.24 Unknown
06/24/2022 12:14 AM 82.58 x 47.12 103.64 56.84 29.0 x x x x x 5.59 SW No 0.000 Unidentified Slight     0.000 0.000 0.000 0.827 0.000 34.42 Unknown
06/24/2022 12:15 AM 82.22 x 47.66 103.64 56.84 30.0 x x x x x 5.59 SW No 0.000 Unidentified Slight     0.000 0.000 0.000 0.827 0.000 34.34 Unknown
06/24/2022 12:16 AM 82.22 x 46.76 103.64 56.84 29.0 x x x x x 5.59 SW No 0.000 Unidentified Slight     0.000 0.000 0.000 0.827 0.000 35.54 Unknown
06/24/2022 12:17 AM 82.22 x 47.66 103.64 56.84 30.0 x x x x x 5.82 SW No 0.000 Unidentified Slight     0.000 0.000 0.000 0.827 0.000 33.97 Unknown
06/24/2022 12:18 AM 82.22 x 46.76 103.64 56.84 29.0 x x x x x 5.82 SW No 0.000 Unidentified Slight     0.000 0.000 0.000 0.827 0.000 33.08 Unknown
06/24/2022 12:19 AM 82.40 x 46.94 103.64 56.84 29.0 x x x x x 5.82 SW No 0.000 Unidentified Slight     0.000 0.000 0.000 0.827 0.000 29.92 Unknown
06/24/2022 12:20 AM 82.76 x 46.22 103.64 56.84 28.0 x x x x x 5.82 SW No 0.000 Unidentified Slight     0.000 0.000 0.000 0.827 0.000 24.40 Unknown
06/24/2022 12:21 AM 82.94 x 46.40 103.64 56.84 28.0 x x x x x 5.82 SW No 0.000 Unidentified Slight     0.000 0.000 0.000 0.827 0.000 22.17 Unknown
06/24/2022 12:22 AM 83.12 x 46.58 103.64 56.84 28.0 x x x x x 5.82 SW No 0.000 Unidentified Slight     0.000 0.000 0.000 0.827 0.000 22.98 Unknown
06/24/2022 12:23 AM 83.12 x 46.58 103.64 56.84 28.0 x x x x x 5.82 SW No 0.000 Unidentified Slight     0.000 0.000 0.000 0.827 0.000 27.33 Unknown
06/24/2022 12:24 AM 82.94 x 46.40 103.64 56.84 28.0 x x x x x 5.82 SW No 0.000 Unidentified Slight     0.000 0.000 0.000 0.827 0.000 31.83 Unknown
06/24/2022 12:25 AM 82.76 x 46.22 103.64 56.84 28.0 x x x x x 6.26 SW No 0.000 Unidentified Slight     0.000 0.000 0.000 0.827 0.000 28.44 Unknown
06/24/2022 12:26 AM 82.76 x 46.22 103.64 56.84 28.0 x x x x x 7.83 SW No 0.000 Unidentified Slight     0.000 0.000 0.000 0.827 0.000 33.64 Unknown
06/24/2022 12:27 AM 82.76 x 46.22 103.64 56.84 28.0 x x x x x 7.83 SW No 0.000 Unidentified Slight     0.000 0.000 0.000 0.827 0.000 35.66 Unknown
06/24/2022 12:28 AM 83.12 x 45.68 103.64 56.84 27.0 x x x x x 7.83 SW No 0.000 Unidentified Slight     0.000 0.000 0.000 0.827 0.000 35.33 Unknown
06/24/2022 12:29 AM 82.94 x 46.40 103.64 56.84 28.0 x x x x x 7.83 SW No 0.000 Unidentified Slight     0.000 0.000 0.000 0.827 0.000 34.35 Unknown
06/24/2022 12:30 AM 82.76 x 46.22 103.64 56.84 28.0 x x x x x 7.83 SW No 0.000 Unidentified Slight     0.000 0.000 0.000 0.827 0.000 33.05 Unknown
06/24/2022 12:31 AM 82.58 x 46.22 103.64 56.84 28.0 x x x x x 7.83 SW No 0.000 Unidentified Slight     0.000 0.000 0.000 0.827 0.000 33.89 Unknown
06/24/2022 12:32 AM 82.76 x 45.32 103.64 56.84 27.0 x x x x x 7.83 SW No 0.000 Unidentified Slight     0.000 0.000 0.000 0.827 0.000 36.49 Unknown
06/24/2022 12:33 AM 82.76 x 46.22 103.64 56.84 28.0 x x x x x 7.83 SW No 0.000 Unidentified Slight     0.000 0.000 0.000 0.827 0.000 35.68 Unknown
06/24/2022 12:34 AM 82.58 x 46.22 103.64 56.84 28.0 x x x x x 7.83 SW No 0.000 Unidentified Slight     0.000 0.000 0.000 0.827 0.000 34.86 Unknown
06/24/2022 12:35 AM 82.40 x 46.04 103.64 56.84 28.0 x x x x x 6.49 SW No 0.000 Unidentified Slight     0.000 0.000 0.000 0.827 0.000 36.08 Unknown
06/24/2022 12:36 AM 82.40 x 46.04 103.64 56.84 28.0 x x x x x 5.59 SW No 0.000 Unidentified Slight     0.000 0.000 0.000 0.827 0.000 33.87 Unknown
06/24/2022 12:37 AM 82.40 x 46.04 103.64 56.84 28.0 x x x x x 5.14 SW No 0.000 Unidentified Slight     0.000 0.000 0.000 0.827 0.000 34.20 Unknown
06/24/2022 12:38 AM 82.40 x 46.04 103.64 56.84 28.0 x x x x x 5.14 SW No 0.000 Unidentified Slight     0.000 0.000 0.000 0.827 0.000 35.77 Unknown
06/24/2022 12:39 AM 82.22 x 46.76 103.64 56.84 29.0 x x x x x 5.37 SW No 0.000 Unidentified Slight     0.000 0.000 0.000 0.827 0.000 34.93 Unknown
06/24/2022 12:40 AM 82.40 x 46.04 103.64 56.84 28.0 x x x x x 5.37 SW No 0.000 Unidentified Slight     0.000 0.000 0.000 0.827 0.000 32.36 Unknown
06/24/2022 12:41 AM 82.76 x 45.32 103.64 56.84 27.0 x x x x x 5.37 SW No 0.000 Unidentified Slight     0.000 0.000 0.000 0.827 0.000 26.57 Unknown
06/24/2022 12:42 AM 82.94 x 45.50 103.64 56.84 27.0 x x x x x 5.37 SW No 0.000 Unidentified Slight     0.000 0.000 0.000 0.827 0.000 30.32 Unknown
06/24/2022 12:43 AM 83.12 x 45.68 103.64 56.84 27.0 x x x x x 5.37 SW No 0.000 Unidentified Slight     0.000 0.000 0.000 0.827 0.000 31.81 Unknown
06/24/2022 12:44 AM 82.94 x 45.50 103.64 56.84 27.0 x x x x x 5.37 SW No 0.000 Unidentified Slight     0.000 0.000 0.000 0.827 0.000 31.30 Unknown
06/24/2022 12:45 AM 82.94 x 45.50 103.64 56.84 27.0 x x x x x 5.37 SW No 0.000 Unidentified Slight     0.000 0.000 0.000 0.827 0.000 33.49 Unknown
06/24/2022 12:46 AM 82.94 x 45.50 103.64 56.84 27.0 x x x x x 5.82 SW No 0.000 Unidentified Slight     0.000 0.000 0.000 0.827 0.000 32.96 Unknown
06/24/2022 12:47 AM 82.94 x 45.50 103.64 56.84 27.0 x x x x x 5.82 SW No 0.000 Unidentified Slight     0.000 0.000 0.000 0.827 0.000 31.99 Unknown
06/24/2022 12:48 AM 82.58 x 46.22 103.64 56.84 28.0 x x x x x 5.82 SW No 0.000 Unidentified Slight     0.000 0.000 0.000 0.827 0.000 33.44 Unknown
06/24/2022 12:49 AM 82.40 x 46.04 103.64 56.84 28.0 x x x x x 5.82 SW No 0.000 Unidentified Slight     0.000 0.000 0.000 0.827 0.000 31.07 Unknown
06/24/2022 12:50 AM 82.22 x 45.86 103.64 56.84 28.0 x x x x x 5.82 SW No 0.000 Unidentified Slight     0.000 0.000 0.000 0.827 0.000 30.23 Unknown
06/24/2022 12:51 AM 82.22 x 45.86 103.64 56.84 28.0 x x x x x 5.82 SW No 0.000 Unidentified Slight     0.000 0.000 0.000 0.827 0.000 31.58 Unknown
06/24/2022 12:52 AM 82.04 x 46.58 103.64 56.84 29.0 x x x x x 5.82 SW No 0.000 Unidentified Slight     0.000 0.000 0.000 0.827 0.000 31.64 Unknown
06/24/2022 12:53 AM 81.86 x 47.30 103.64 56.84 30.0 x x x x x 5.82 SW No 0.000 Unidentified Slight     0.000 0.000 0.000 0.827 0.000 34.42 Unknown
06/24/2022 12:54 AM 81.50 x 47.12 103.64 56.84 30.0 x x x x x 5.82 SW No 0.000 Unidentified Slight     0.000 0.000 0.000 0.827 0.000 34.34 Unknown
06/24/2022 12:55 AM 81.32 x 46.94 103.64 56.84 30.0 x x x x x 5.59 SW No 0.000 Unidentified Slight     0.000 0.000 0.000 0.827 0.000 35.20 Unknown
06/24/2022 12:56 AM 81.32 x 46.94 103.64 56.84 30.0 x x x x x 5.59 SW No 0.000 Unidentified Slight     0.000 0.000 0.000 0.827 0.000 30.78 Unknown
06/24/2022 12:57 AM 81.32 x 47.84 103.64 56.84 31.0 x x x x x 5.59 SW No 0.000 Unidentified Slight     0.000 0.000 0.000 0.827 0.000 29.01 Unknown
06/24/2022 12:58 AM 81.32 x 46.94 103.64 56.84 30.0 x x x x x 5.59 SW No 0.000 Unidentified Slight     0.000 0.000 0.000 0.827 0.000 33.35 Unknown
06/24/2022 12:59 AM 81.14 x 47.66 103.64 56.84 31.0 x x x x x 4.92 SW No 0.000 Unidentified Slight     0.000 0.000 0.000 0.827 0.000 31.09 Unknown
06/24/2022 01:00 AM 80.96 x 47.48 103.64 56.84 31.0 x x x x x 4.03 SW No 0.000 Unidentified Slight     0.000 0.000 0.000 0.827 0.000 30.48 Unknown
06/24/2022 01:01 AM 80.96 x 47.48 103.64 56.84 31.0 x x x x x 4.70 SW No 0.000 Unidentified Slight     0.000 0.000 0.000 0.827 0.000 32.45 Unknown
06/24/2022 01:02 AM 80.96 x 47.48 103.64 56.84 31.0 x x x x x 4.70 SW No 0.000 Unidentified Slight     0.000 0.000 0.000 0.827 0.000 31.88 Unknown
06/24/2022 01:03 AM 80.96 x 47.48 103.64 56.84 31.0 x x x x x 5.14 SW No 0.000 Unidentified Slight     0.000 0.000 0.000 0.827 0.000 27.37 Unknown
06/24/2022 01:04 AM 80.78 x 47.30 103.64 56.84 31.0 x x x x x 5.14 SW No 0.000 Unidentified Slight     0.000 0.000 0.000 0.827 0.000 29.48 Unknown
06/24/2022 01:05 AM 80.78 x 46.40 103.64 56.84 30.0 x x x x x 5.14 SW No 0.000 Unidentified Slight     0.000 0.000 0.000 0.827 0.000 28.44 Unknown
06/24/2022 01:06 AM 80.96 x 46.58 103.64 56.84 30.0 x x x x x 5.14 SW No 0.000 Unidentified Slight     0.000 0.000 0.000 0.827 0.000 24.20 Unknown
06/24/2022 01:07 AM 80.96 x 46.58 103.64 56.84 30.0 x x x x x 5.14 SW No 0.000 Unidentified Slight     0.000 0.000 0.000 0.827 0.000 29.39 Unknown
06/24/2022 01:08 AM 80.96 x 46.58 103.64 56.84 30.0 x x x x x 5.14 SW No 0.000 Unidentified Slight     0.000 0.000 0.000 0.827 0.000 31.18 Unknown
06/24/2022 01:09 AM 80.96 x 46.58 103.64 56.84 30.0 x x x x x 5.14 SW No 0.000 Unidentified Slight     0.000 0.000 0.000 0.827 0.000 32.54 Unknown
06/24/2022 01:10 AM 80.60 x 46.22 103.64 56.84 30.0 x x x x x 5.14 SW No 0.000 Unidentified Slight     0.000 0.000 0.000 0.827 0.000 32.53 Unknown
06/24/2022 01:11 AM 80.78 x 46.40 103.64 56.84 30.0 x x x x x 5.14 SW No 0.000 Unidentified Slight     0.000 0.000 0.000 0.827 0.000 31.01 Unknown
06/24/2022 01:12 AM 80.78 x 47.30 103.64 56.84 31.0 x x x x x 4.70 SW No 0.000 Unidentified Slight     0.000 0.000 0.000 0.827 0.000 30.62 Unknown
06/24/2022 01:13 AM 80.42 x 46.94 103.64 56.84 31.0 x x x x x 4.70 SW No 0.000 Unidentified Slight     0.000 0.000 0.000 0.827 0.000 34.14 Unknown
06/24/2022 01:14 AM 80.24 x 47.66 103.64 56.84 32.0 x x x x x 4.25 SW No 0.000 Unidentified Slight     0.000 0.000 0.000 0.827 0.000 34.41 Unknown
06/24/2022 01:15 AM 80.24 x 46.76 103.64 56.84 31.0 x x x x x 4.25 SW No 0.000 Unidentified Slight     0.000 0.000 0.000 0.827 0.000 32.94 Unknown
06/24/2022 01:16 AM 80.06 x 47.48 103.64 56.84 32.0 x x x x x 3.80 SW No 0.000 Unidentified Slight     0.000 0.000 0.000 0.827 0.000 31.39 Unknown
06/24/2022 01:17 AM 79.88 x 47.30 103.64 56.84 32.0 x x x x x 3.80 SW No 0.000 Unidentified Slight     0.000 0.000 0.000 0.827 0.000 33.36 Unknown
06/24/2022 01:18 AM 79.70 x 48.02 103.64 56.84 33.0 x x x x x 3.80 SW No 0.000 Unidentified Slight     0.000 0.000 0.000 0.827 0.000 33.98 Unknown
06/24/2022 01:19 AM 79.52 x 47.84 103.64 56.84 33.0 x x x x x 3.80 SW No 0.000 Unidentified Slight     0.000 0.000 0.000 0.827 0.000 32.30 Unknown
06/24/2022 01:20 AM 79.34 x 47.66 103.64 56.84 33.0 x x x x x 4.03 SW No 0.000 Unidentified Slight     0.000 0.000 0.000 0.827 0.000 34.25 Unknown
06/24/2022 01:21 AM 79.34 x 47.66 103.64 56.84 33.0 x x x x x 4.03 SW No 0.000 Unidentified Slight     0.000 0.000 0.000 0.827 0.000 33.62 Unknown
06/24/2022 01:22 AM 79.34 x 46.94 103.64 56.84 32.0 x x x x x 4.03 SW No 0.000 Unidentified Slight     0.000 0.000 0.000 0.827 0.000 34.66 Unknown
06/24/2022 01:23 AM 79.34 x 46.94 103.64 56.84 32.0 x x x x x 4.03 SW No 0.000 Unidentified Slight     0.000 0.000 0.000 0.827 0.000 33.35 Unknown
06/24/2022 01:24 AM 79.34 x 46.94 103.64 56.84 32.0 x x x x x 4.03 SW No 0.000 Unidentified Slight     0.000 0.000 0.000 0.827 0.000 33.20 Unknown
06/24/2022 01:25 AM 79.52 x 47.12 103.64 56.84 32.0 x x x x x 4.03 SW No 0.000 Unidentified Slight     0.000 0.000 0.000 0.827 0.000 30.40 Unknown
06/24/2022 01:26 AM 79.52 x 47.12 103.64 56.84 32.0 x x x x x 4.03 SW No 0.000 Unidentified Slight     0.000 0.000 0.000 0.827 0.000 26.92 Unknown
06/24/2022 01:27 AM 79.52 x 47.12 103.64 56.84 32.0 x x x x x 4.03 SW No 0.000 Unidentified Slight     0.000 0.000 0.000 0.827 0.000 32.68 Unknown
06/24/2022 01:28 AM 79.34 x 46.94 103.64 56.84 32.0 x x x x x 4.47 SW No 0.000 Unidentified Slight     0.000 0.000 0.000 0.827 0.000 32.55 Unknown
06/24/2022 01:29 AM 79.34 x 46.94 103.64 56.84 32.0 x x x x x 5.59 SW No 0.000 Unidentified Slight     0.000 0.000 0.000 0.827 0.000 33.94 Unknown
06/24/2022 01:30 AM 79.34 x 46.94 103.64 56.84 32.0 x x x x x 5.82 SW No 0.000 Unidentified Slight     0.000 0.000 0.000 0.827 0.000 35.35 Unknown
06/24/2022 01:31 AM 79.34 x 46.94 103.64 56.84 32.0 x x x x x 5.82 SW No 0.000 Unidentified Slight     0.000 0.000 0.000 0.827 0.000 34.14 Unknown
06/24/2022 01:32 AM 79.52 x 46.22 103.64 56.84 31.0 x x x x x 6.04 SW No 0.000 Unidentified Slight     0.000 0.000 0.000 0.827 0.000 34.10 Unknown
06/24/2022 01:33 AM 79.70 x 46.40 103.64 56.84 31.0 x x x x x 6.04 SW No 0.000 Unidentified Slight     0.000 0.000 0.000 0.827 0.000 34.07 Unknown
06/24/2022 01:34 AM 79.88 x 46.58 103.64 56.84 31.0 x x x x x 6.04 SW No 0.000 Unidentified Slight     0.000 0.000 0.000 0.827 0.000 33.06 Unknown
06/24/2022 01:35 AM 79.88 x 46.58 103.64 56.84 31.0 x x x x x 6.04 SW No 0.000 Unidentified Slight     0.000 0.000 0.000 0.827 0.000 33.30 Unknown
06/24/2022 01:36 AM 79.88 x 46.58 103.64 56.84 31.0 x x x x x 6.04 SW No 0.000 Unidentified Slight     0.000 0.000 0.000 0.827 0.000 31.81 Unknown
06/24/2022 01:37 AM 79.88 x 46.58 103.64 56.84 31.0 x x x x x 6.04 SW No 0.000 Unidentified Slight     0.000 0.000 0.000 0.827 0.000 30.47 Unknown
06/24/2022 01:38 AM 79.88 x 46.58 103.64 56.84 31.0 x x x x x 6.04 SW No 0.000 Unidentified Slight     0.000 0.000 0.000 0.827 0.000 33.02 Unknown
06/24/2022 01:39 AM 79.70 x 46.40 103.64 56.84 31.0 x x x x x 6.04 SW No 0.000 Unidentified Slight     0.000 0.000 0.000 0.827 0.000 32.66 Unknown
06/24/2022 01:40 AM 79.52 x 46.22 103.64 56.84 31.0 x x x x x 6.04 SW No 0.000 Unidentified Slight     0.000 0.000 0.000 0.827 0.000 32.10 Unknown
06/24/2022 01:41 AM 79.34 x 46.04 103.64 56.84 31.0 x x x x x 5.59 SW No 0.000 Unidentified Slight     0.000 0.000 0.000 0.827 0.000 32.15 Unknown
06/24/2022 01:42 AM 79.34 x 46.94 103.64 56.84 32.0 x x x x x 5.59 SW No 0.000 Unidentified Slight     0.000 0.000 0.000 0.827 0.000 31.68 Unknown
06/24/2022 01:43 AM 79.34 x 46.04 103.64 56.84 31.0 x x x x x 5.59 SW No 0.000 Unidentified Slight     0.000 0.000 0.000 0.827 0.000 32.52 Unknown
06/24/2022 01:44 AM 79.34 x 46.04 103.64 56.84 31.0 x x x x x 5.59 SW No 0.000 Unidentified Slight     0.000 0.000 0.000 0.827 0.000 31.75 Unknown
06/24/2022 01:45 AM 79.16 x 46.76 103.64 56.84 32.0 x x x x x 5.59 SW No 0.000 Unidentified Slight     0.000 0.000 0.000 0.827 0.000 24.57 Unknown
06/24/2022 01:46 AM 78.98 x 46.58 103.64 56.84 32.0 x x x x x 5.59 SW No 0.000 Unidentified Slight     0.000 0.000 0.000 0.827 0.000 15.90 Unknown
06/24/2022 01:47 AM 78.80 x 47.30 103.64 56.84 33.0 x x x x x 5.59 SW No 0.000 Unidentified Slight     0.000 0.000 0.000 0.827 0.000 19.40 Unknown
06/24/2022 01:48 AM 78.62 x 47.12 103.64 56.84 33.0 x x x x x 6.04 SW No 0.000 Unidentified Slight     0.000 0.000 0.000 0.827 0.000 25.85 Unknown
06/24/2022 01:49 AM 78.44 x 46.94 103.64 56.84 33.0 x x x x x 6.04 SW No 0.000 Unidentified Slight     0.000 0.000 0.000 0.827 0.000 31.52 Unknown
06/24/2022 01:50 AM 78.62 x 47.12 103.64 56.84 33.0 x x x x x 6.04 SW No 0.000 Unidentified Slight     0.000 0.000 0.000 0.827 0.000 29.00 Unknown
06/24/2022 01:51 AM 78.80 x 46.40 103.64 56.84 32.0 x x x x x 6.04 SW No 0.000 Unidentified Slight     0.000 0.000 0.000 0.827 0.000 31.20 Unknown
06/24/2022 01:52 AM 78.80 x 46.40 103.64 56.84 32.0 x x x x x 7.61 SW No 0.000 Unidentified Slight     0.000 0.000 0.000 0.827 0.000 32.26 Unknown
06/24/2022 01:53 AM 78.62 x 46.22 103.64 56.84 32.0 x x x x x 7.61 SW No 0.000 Unidentified Slight     0.000 0.000 0.000 0.827 0.000 32.04 Unknown
06/24/2022 01:54 AM 78.62 x 47.12 103.64 56.84 33.0 x x x x x 7.61 SW No 0.000 Unidentified Slight     0.000 0.000 0.000 0.827 0.000 31.48 Unknown
06/24/2022 01:55 AM 78.44 x 46.94 103.64 56.84 33.0 x x x x x 8.05 SW No 0.000 Unidentified Slight     0.000 0.000 0.000 0.827 0.000 31.68 Unknown
06/24/2022 01:56 AM 78.44 x 46.04 103.64 56.84 32.0 x x x x x 9.40 SW No 0.000 Unidentified Slight     0.000 0.000 0.000 0.827 0.000 32.78 Unknown
06/24/2022 01:57 AM 78.44 x 46.04 103.64 56.84 32.0 x x x x x 9.40 SW No 0.000 Unidentified Slight     0.000 0.000 0.000 0.827 0.000 32.82 Unknown
06/24/2022 01:58 AM 78.44 x 46.04 103.64 56.84 32.0 x x x x x 9.62 SW No 0.000 Unidentified Slight     0.000 0.000 0.000 0.827 0.000 31.88 Unknown
06/24/2022 01:59 AM 78.26 x 46.76 103.64 56.84 33.0 x x x x x 9.62 SW No 0.000 Unidentified Slight     0.000 0.000 0.000 0.827 0.000 31.69 Unknown
06/24/2022 02:00 AM 78.44 x 46.04 103.64 56.84 32.0 x x x x x 9.62 SW No 0.000 Unidentified Slight     0.000 0.000 0.000 0.827 0.000 31.34 Unknown
06/24/2022 02:01 AM 78.44 x 46.04 103.64 56.84 32.0 x x x x x 9.62 SW No 0.000 Unidentified Slight     0.000 0.000 0.000 0.827 0.000 30.63 Unknown
06/24/2022 02:02 AM 78.26 x 45.86 103.64 56.84 32.0 x x x x x 9.62 SW No 0.000 Unidentified Slight     0.000 0.000 0.000 0.827 0.000 25.52 Unknown
06/24/2022 02:03 AM 78.26 x 45.86 103.64 56.84 32.0 x x x x x 9.62 SW No 0.000 Unidentified Slight     0.000 0.000 0.000 0.827 0.000 27.86 Unknown
06/24/2022 02:04 AM 78.44 x 46.04 103.64 56.84 32.0 x x x x x 9.62 SW No 0.000 Unidentified Slight     0.000 0.000 0.000 0.827 0.000 32.32 Unknown
06/24/2022 02:05 AM 78.44 x 46.04 103.64 56.84 32.0 x x x x x 9.62 SW No 0.000 Unidentified Slight     0.000 0.000 0.000 0.827 0.000 33.24 Unknown
06/24/2022 02:06 AM 78.26 x 45.86 103.64 56.84 32.0 x x x x x 9.62 SW No 0.000 Unidentified Slight     0.000 0.000 0.000 0.827 0.000 32.06 Unknown
06/24/2022 02:07 AM 78.26 x 45.86 103.64 56.84 32.0 x x x x x 9.62 SW No 0.000 Unidentified Slight     0.000 0.000 0.000 0.827 0.000 32.91 Unknown
06/24/2022 02:08 AM 78.26 x 45.86 103.64 56.84 32.0 x x x x x 8.50 SW No 0.000 Unidentified Slight     0.000 0.000 0.000 0.827 0.000 31.44 Unknown
06/24/2022 02:09 AM 78.26 x 46.76 103.64 56.84 33.0 x x x x x 8.50 SW No 0.000 Unidentified Slight     0.000 0.000 0.000 0.827 0.000 33.32 Unknown
06/24/2022 02:10 AM 78.26 x 45.86 103.64 56.84 32.0 x x x x x 8.05 SW No 0.000 Unidentified Slight     0.000 0.000 0.000 0.827 0.000 31.59 Unknown
06/24/2022 02:11 AM 78.26 x 45.86 103.64 56.84 32.0 x x x x x 8.05 SW No 0.000 Unidentified Slight     0.000 0.000 0.000 0.827 0.000 29.28 Unknown
06/24/2022 02:12 AM 78.44 x 46.04 103.64 56.84 32.0 x x x x x 7.38 SW No 0.000 Unidentified Slight     0.000 0.000 0.000 0.827 0.000 23.19 Unknown
06/24/2022 02:13 AM 78.44 x 46.04 103.64 56.84 32.0 x x x x x 7.38 SW No 0.000 Unidentified Slight     0.000 0.000 0.000 0.827 0.000 18.20 Unknown
06/24/2022 02:14 AM 78.44 x 46.04 103.64 56.84 32.0 x x x x x 7.83 SW No 0.000 Unidentified Slight     0.000 0.000 0.000 0.827 0.000 28.95 Unknown
06/24/2022 02:15 AM 78.80 x 45.50 103.64 56.84 31.0 x x x x x 8.05 SW No 0.000 Unidentified Slight     0.000 0.000 0.000 0.827 0.000 31.69 Unknown
06/24/2022 02:16 AM 78.80 x 45.50 103.64 56.84 31.0 x x x x x 8.72 SW No 0.000 Unidentified Slight     0.000 0.000 0.000 0.827 0.000 31.29 Unknown
06/24/2022 02:17 AM 78.80 x 45.50 103.64 56.84 31.0 x x x x x 8.72 SW No 0.000 Unidentified Slight     0.000 0.000 0.000 0.827 0.000 30.66 Unknown
06/24/2022 02:18 AM 78.80 x 45.50 103.64 56.84 31.0 x x x x x 8.72 SW No 0.000 Unidentified Slight     0.000 0.000 0.000 0.827 0.000 31.57 Unknown
06/24/2022 02:19 AM 78.98 x 45.68 103.64 56.84 31.0 x x x x x 8.72 SW No 0.000 Unidentified Slight     0.000 0.000 0.000 0.827 0.000 31.56 Unknown
06/24/2022 02:20 AM 78.98 x 45.68 103.64 56.84 31.0 x x x x x 8.72 SW No 0.000 Unidentified Slight     0.000 0.000 0.000 0.827 0.000 31.67 Unknown
06/24/2022 02:21 AM 78.98 x 45.68 103.64 56.84 31.0 x x x x x 8.72 SW No 0.000 Unidentified Slight     0.000 0.000 0.000 0.827 0.000 32.25 Unknown
06/24/2022 02:22 AM 78.98 x 45.68 103.64 56.84 31.0 x x x x x 8.72 SW No 0.000 Unidentified Slight     0.000 0.000 0.000 0.827 0.000 32.54 Unknown
06/24/2022 02:23 AM 78.80 x 45.50 103.64 56.84 31.0 x x x x x 8.72 SW No 0.000 Unidentified Slight     0.000 0.000 0.000 0.827 0.000 31.98 Unknown
06/24/2022 02:24 AM 78.62 x 45.50 103.64 56.84 31.0 x x x x x 8.72 SW No 0.000 Unidentified Slight     0.000 0.000 0.000 0.827 0.000 31.41 Unknown
06/24/2022 02:25 AM 78.44 x 45.32 103.64 56.84 31.0 x x x x x 8.05 SW No 0.000 Unidentified Slight     0.000 0.000 0.000 0.827 0.000 31.41 Unknown
06/24/2022 02:26 AM 78.44 x 45.32 103.64 56.84 31.0 x x x x x 7.83 SW No 0.000 Unidentified Slight     0.000 0.000 0.000 0.827 0.000 31.76 Unknown
06/24/2022 02:27 AM 78.44 x 46.04 103.64 56.84 32.0 x x x x x 7.83 SW No 0.000 Unidentified Slight     0.000 0.000 0.000 0.827 0.000 31.96 Unknown
06/24/2022 02:28 AM 78.44 x 46.04 103.64 56.84 32.0 x x x x x 7.83 SW No 0.000 Unidentified Slight     0.000 0.000 0.000 0.827 0.000 32.15 Unknown
06/24/2022 02:29 AM 78.44 x 46.04 103.64 56.84 32.0 x x x x x 6.71 SW No 0.000 Unidentified Slight     0.000 0.000 0.000 0.827 0.000 31.22 Unknown
06/24/2022 02:30 AM 78.44 x 46.04 103.64 56.84 32.0 x x x x x 6.71 SW No 0.000 Unidentified Slight     0.000 0.000 0.000 0.827 0.000 27.67 Unknown
06/24/2022 02:31 AM 78.26 x 45.86 103.64 56.84 32.0 x x x x x 6.71 SW No 0.000 Unidentified Slight     0.000 0.000 0.000 0.827 0.000 17.11 Unknown
06/24/2022 02:32 AM 78.08 x 45.86 103.64 56.84 32.0 x x x x x 6.71 SW No 0.000 Unidentified Slight     0.000 0.000 0.000 0.827 0.000 24.38 Unknown
06/24/2022 02:33 AM 77.90 x 45.68 103.64 56.84 32.0 x x x x x 6.71 SW No 0.000 Unidentified Slight     0.000 0.000 0.000 0.827 0.000 26.55 Unknown
06/24/2022 02:34 AM 77.72 x 45.50 103.64 56.84 32.0 x x x x x 5.59 SW No 0.000 Unidentified Slight     0.000 0.000 0.000 0.827 0.000 30.12 Unknown
06/24/2022 02:35 AM 77.72 x 46.22 103.64 56.84 33.0 x x x x x 5.14 SW No 0.000 Unidentified Slight     0.000 0.000 0.000 0.827 0.000 31.68 Unknown
06/24/2022 02:36 AM 77.54 x 46.04 103.64 56.84 33.0 x x x x x 5.14 SW No 0.000 Unidentified Slight     0.000 0.000 0.000 0.827 0.000 30.58 Unknown
06/24/2022 02:37 AM 77.54 x 46.04 103.64 56.84 33.0 x x x x x 5.14 SW No 0.000 Unidentified Slight     0.000 0.000 0.000 0.827 0.000 30.40 Unknown
06/24/2022 02:38 AM 77.54 x 46.04 103.64 56.84 33.0 x x x x x 5.14 SW No 0.000 Unidentified Slight     0.000 0.000 0.000 0.827 0.000 31.39 Unknown
06/24/2022 02:39 AM 77.54 x 46.04 103.64 56.84 33.0 x x x x x 5.59 SW No 0.000 Unidentified Slight     0.000 0.000 0.000 0.827 0.000 31.99 Unknown
06/24/2022 02:40 AM 77.54 x 46.04 103.64 56.84 33.0 x x x x x 5.82 SW No 0.000 Unidentified Slight     0.000 0.000 0.000 0.827 0.000 31.82 Unknown
06/24/2022 02:41 AM 77.72 x 45.50 103.64 56.84 32.0 x x x x x 7.83 SW No 0.000 Unidentified Slight     0.000 0.000 0.000 0.827 0.000 32.13 Unknown
06/24/2022 02:42 AM 77.72 x 45.50 103.64 56.84 32.0 x x x x x 8.28 SW No 0.000 Unidentified Slight     0.000 0.000 0.000 0.827 0.000 31.67 Unknown
06/24/2022 02:43 AM 78.08 x 44.96 103.64 56.84 31.0 x x x x x 9.84 SW No 0.000 Unidentified Slight     0.000 0.000 0.000 0.827 0.000 31.01 Unknown
06/24/2022 02:44 AM 78.44 x 44.42 103.64 56.84 30.0 x x x x x 9.84 SW No 0.000 Unidentified Slight     0.000 0.000 0.000 0.827 0.000 23.16 Unknown
06/24/2022 02:45 AM 78.44 x 45.32 103.64 56.84 31.0 x x x x x 9.84 SW No 0.000 Unidentified Slight     0.000 0.000 0.000 0.827 0.000 27.28 Unknown
06/24/2022 02:46 AM 78.62 x 44.60 103.64 56.84 30.0 x x x x x 9.84 SW No 0.000 Unidentified Slight     0.000 0.000 0.000 0.827 0.000 30.43 Unknown
06/24/2022 02:47 AM 78.62 x 45.50 103.64 56.84 31.0 x x x x x 9.84 SW No 0.000 Unidentified Slight     0.000 0.000 0.000 0.827 0.000 30.98 Unknown
06/24/2022 02:48 AM 78.62 x 44.60 103.64 56.84 30.0 x x x x x 9.84 SW No 0.000 Unidentified Slight     0.000 0.000 0.000 0.827 0.000 30.27 Unknown
06/24/2022 02:49 AM 78.62 x 44.60 103.64 56.84 30.0 x x x x x 9.84 SW No 0.000 Unidentified Slight     0.000 0.000 0.000 0.827 0.000 31.93 Unknown
06/24/2022 02:50 AM 78.44 x 45.32 103.64 56.84 31.0 x x x x x 9.84 SW No 0.000 Unidentified Slight     0.000 0.000 0.000 0.827 0.000 32.07 Unknown
06/24/2022 02:51 AM 78.26 x 45.14 103.64 56.84 31.0 x x x x x 9.84 SW No 0.000 Unidentified Slight     0.000 0.000 0.000 0.827 0.000 30.83 Unknown
06/24/2022 02:52 AM 78.08 x 44.96 103.64 56.84 31.0 x x x x x 8.50 SW No 0.000 Unidentified Slight     0.000 0.000 0.000 0.827 0.000 32.32 Unknown
06/24/2022 02:53 AM 77.90 x 44.78 103.64 56.84 31.0 x x x x x 8.28 SW No 0.000 Unidentified Slight     0.000 0.000 0.000 0.827 0.000 31.32 Unknown
06/24/2022 02:54 AM 77.90 x 44.78 103.64 56.84 31.0 x x x x x 8.72 SW No 0.000 Unidentified Slight     0.000 0.000 0.000 0.827 0.000 30.23 Unknown
06/24/2022 02:55 AM 78.08 x 44.96 103.64 56.84 31.0 x x x x x 8.95 SW No 0.000 Unidentified Slight     0.000 0.000 0.000 0.827 0.000 31.07 Unknown
06/24/2022 02:56 AM 78.26 x 45.14 103.64 56.84 31.0 x x x x x 8.95 SW No 0.000 Unidentified Slight     0.000 0.000 0.000 0.827 0.000 30.04 Unknown
06/24/2022 02:57 AM 78.26 x 45.14 103.64 56.84 31.0 x x x x x 8.95 SW No 0.000 Unidentified Slight     0.000 0.000 0.000 0.827 0.000 31.55 Unknown
06/24/2022 02:58 AM 78.26 x 45.14 103.64 56.84 31.0 x x x x x 8.95 SW No 0.000 Unidentified Slight     0.000 0.000 0.000 0.827 0.000 30.38 Unknown
06/24/2022 02:59 AM 78.26 x 44.24 103.64 56.84 30.0 x x x x x 8.95 SW No 0.000 Unidentified Slight     0.000 0.000 0.000 0.827 0.000 30.99 Unknown
06/24/2022 03:00 AM 78.44 x 44.42 103.64 56.84 30.0 x x x x x 8.95 SW No 0.000 Unidentified Slight     0.000 0.000 0.000 0.827 0.000 31.31 Unknown
06/24/2022 03:01 AM 78.44 x 44.42 103.64 56.84 30.0 x x x x x 8.95 SW No 0.000 Unidentified Slight     0.000 0.000 0.000 0.827 0.000 33.56 Unknown
06/24/2022 03:02 AM 78.26 x 45.14 103.64 56.84 31.0 x x x x x 8.95 SW No 0.000 Unidentified Slight     0.000 0.000 0.000 0.827 0.000 29.19 Unknown
06/24/2022 03:03 AM 78.08 x 44.96 103.64 56.84 31.0 x x x x x 8.95 SW No 0.000 Unidentified Slight     0.000 0.000 0.000 0.827 0.000 30.68 Unknown
06/24/2022 03:04 AM 77.72 x 44.60 103.64 56.84 31.0 x x x x x 8.95 SW No 0.000 Unidentified Slight     0.000 0.000 0.000 0.827 0.000 31.48 Unknown
06/24/2022 03:05 AM 77.72 x 45.50 103.64 56.84 32.0 x x x x x 8.95 SW No 0.000 Unidentified Slight     0.000 0.000 0.000 0.827 0.000 30.80 Unknown
06/24/2022 03:06 AM 77.54 x 45.32 103.64 56.84 32.0 x x x x x 8.50 SW No 0.000 Unidentified Slight     0.000 0.000 0.000 0.827 0.000 30.90 Unknown
06/24/2022 03:07 AM 77.36 x 45.14 103.64 56.84 32.0 x x x x x 8.28 SW No 0.000 Unidentified Slight     0.000 0.000 0.000 0.827 0.000 30.79 Unknown
06/24/2022 03:08 AM 77.18 x 44.96 103.64 56.84 32.0 x x x x x 8.05 SW No 0.000 Unidentified Slight     0.000 0.000 0.000 0.827 0.000 32.47 Unknown
06/24/2022 03:09 AM 77.18 x 44.96 103.64 56.84 32.0 x x x x x 7.16 SW No 0.000 Unidentified Slight     0.000 0.000 0.000 0.827 0.000 32.08 Unknown
06/24/2022 03:10 AM 77.00 x 45.68 103.64 56.84 33.0 x x x x x 6.93 SW No 0.000 Unidentified Slight     0.000 0.000 0.000 0.827 0.000 31.93 Unknown
06/24/2022 03:11 AM 76.82 x 45.50 103.64 56.84 33.0 x x x x x 6.93 SW No 0.000 Unidentified Slight     0.000 0.000 0.000 0.827 0.000 33.03 Unknown
06/24/2022 03:12 AM 76.82 x 45.50 103.64 56.84 33.0 x x x x x 6.26 SW No 0.000 Unidentified Slight     0.000 0.000 0.000 0.827 0.000 32.08 Unknown
06/24/2022 03:13 AM 76.82 x 45.50 103.64 56.84 33.0 x x x x x 6.04 SW No 0.000 Unidentified Slight     0.000 0.000 0.000 0.827 0.000 31.40 Unknown
06/24/2022 03:14 AM 76.82 x 44.60 103.64 56.84 32.0 x x x x x 6.04 SW No 0.000 Unidentified Slight     0.000 0.000 0.000 0.827 0.000 32.93 Unknown
06/24/2022 03:15 AM 76.82 x 44.60 103.64 56.84 32.0 x x x x x 5.82 SW No 0.000 Unidentified Slight     0.000 0.000 0.000 0.827 0.000 31.31 Unknown
06/24/2022 03:16 AM 76.82 x 44.60 103.64 56.84 32.0 x x x x x 5.82 SW No 0.000 Unidentified Slight     0.000 0.000 0.000 0.827 0.000 32.32 Unknown
06/24/2022 03:17 AM 76.82 x 45.50 103.64 56.84 33.0 x x x x x 5.82 SW No 0.000 Unidentified Slight     0.000 0.000 0.000 0.827 0.000 29.84 Unknown
06/24/2022 03:18 AM 76.64 x 45.32 103.64 56.84 33.0 x x x x x 5.82 SW No 0.000 Unidentified Slight     0.000 0.000 0.000 0.827 0.000 26.86 Unknown
06/24/2022 03:19 AM 76.64 x 45.32 103.64 56.84 33.0 x x x x x 5.82 SW No 0.000 Unidentified Slight     0.000 0.000 0.000 0.827 0.000 27.23 Unknown
06/24/2022 03:20 AM 76.46 x 45.14 103.64 56.84 33.0 x x x x x 5.82 SW No 0.000 Unidentified Slight     0.000 0.000 0.000 0.827 0.000 20.36 Unknown
06/24/2022 03:21 AM 76.64 x 45.32 103.64 56.84 33.0 x x x x x 5.82 SW No 0.000 Unidentified Slight     0.000 0.000 0.000 0.827 0.000 13.62 Unknown
06/24/2022 03:22 AM 76.64 x 45.32 103.64 56.84 33.0 x x x x x 5.82 SW No 0.000 Unidentified Slight     0.000 0.000 0.000 0.827 0.000 29.26 Unknown
06/24/2022 03:23 AM 76.64 x 45.32 103.64 56.84 33.0 x x x x x 5.82 SW No 0.000 Unidentified Slight     0.000 0.000 0.000 0.827 0.000 32.32 Unknown
06/24/2022 03:24 AM 76.82 x 44.60 103.64 56.84 32.0 x x x x x 5.37 SW No 0.000 Unidentified Slight     0.000 0.000 0.000 0.827 0.000 30.94 Unknown
06/24/2022 03:25 AM 77.18 x 44.96 103.64 56.84 32.0 x x x x x 5.37 SW No 0.000 Unidentified Slight     0.000 0.000 0.000 0.827 0.000 31.68 Unknown
06/24/2022 03:26 AM 77.18 x 44.24 103.64 56.84 31.0 x x x x x 5.37 SW No 0.000 Unidentified Slight     0.000 0.000 0.000 0.827 0.000 15.44 Unknown
06/24/2022 03:27 AM 77.54 x 44.42 103.64 56.84 31.0 x x x x x 5.59 SW No 0.000 Unidentified Slight     0.000 0.000 0.000 0.827 0.000 26.80 Unknown
06/24/2022 03:28 AM 77.72 x 44.60 103.64 56.84 31.0 x x x x x 6.26 SW No 0.000 Unidentified Slight     0.000 0.000 0.000 0.827 0.000 31.10 Unknown
06/24/2022 03:29 AM 77.72 x 44.60 103.64 56.84 31.0 x x x x x 6.71 SW No 0.000 Unidentified Slight     0.000 0.000 0.000 0.827 0.000 31.56 Unknown
06/24/2022 03:30 AM 77.90 x 44.78 103.64 56.84 31.0 x x x x x 6.71 SW No 0.000 Unidentified Slight     0.000 0.000 0.000 0.827 0.000 32.74 Unknown
06/24/2022 03:31 AM 77.72 x 45.50 103.64 56.84 32.0 x x x x x 6.71 SW No 0.000 Unidentified Slight     0.000 0.000 0.000 0.827 0.000 20.93 Unknown
06/24/2022 03:32 AM 77.72 x 44.60 103.64 56.84 31.0 x x x x x 6.71 SW No 0.000 Unidentified Slight     0.000 0.000 0.000 0.827 0.000 27.44 Unknown
06/24/2022 03:33 AM 77.90 x 44.78 103.64 56.84 31.0 x x x x x 6.71 SW No 0.000 Unidentified Slight     0.000 0.000 0.000 0.827 0.000 31.93 Unknown
06/24/2022 03:34 AM 78.08 x 44.06 103.64 56.84 30.0 x x x x x 6.71 SW No 0.000 Unidentified Slight     0.000 0.000 0.000 0.827 0.000 33.32 Unknown
06/24/2022 03:35 AM 78.08 x 44.96 103.64 56.84 31.0 x x x x x 6.71 SW No 0.000 Unidentified Slight     0.000 0.000 0.000 0.827 0.000 33.13 Unknown
06/24/2022 03:36 AM 78.08 x 44.96 103.64 56.84 31.0 x x x x x 6.71 SW No 0.000 Unidentified Slight     0.000 0.000 0.000 0.827 0.000 31.43 Unknown
06/24/2022 03:37 AM 78.08 x 44.96 103.64 56.84 31.0 x x x x x 6.71 SW No 0.000 Unidentified Slight     0.000 0.000 0.000 0.827 0.000 32.60 Unknown
06/24/2022 03:38 AM 78.08 x 44.96 103.64 56.84 31.0 x x x x x 5.59 SW No 0.000 Unidentified Slight     0.000 0.000 0.000 0.827 0.000 33.59 Unknown
06/24/2022 03:39 AM 78.08 x 44.96 103.64 56.84 31.0 x x x x x 5.59 SW No 0.000 Unidentified Slight     0.000 0.000 0.000 0.827 0.000 33.34 Unknown
06/24/2022 03:40 AM 78.08 x 44.96 103.64 56.84 31.0 x x x x x 5.59 SW No 0.000 Unidentified Slight     0.000 0.000 0.000 0.827 0.000 32.47 Unknown
06/24/2022 03:41 AM 77.90 x 44.78 103.64 56.84 31.0 x x x x x 5.14 SW No 0.000 Unidentified Slight     0.000 0.000 0.000 0.827 0.000 32.54 Unknown
06/24/2022 03:42 AM 78.08 x 44.96 103.64 56.84 31.0 x x x x x 5.82 SW No 0.000 Unidentified Slight     0.000 0.000 0.000 0.827 0.000 33.56 Unknown
06/24/2022 03:43 AM 77.90 x 44.78 103.64 56.84 31.0 x x x x x 7.16 SW No 0.000 Unidentified Slight     0.000 0.000 0.000 0.827 0.000 33.70 Unknown
06/24/2022 03:44 AM 77.90 x 44.78 103.64 56.84 31.0 x x x x x 7.38 SW No 0.000 Unidentified Slight     0.000 0.000 0.000 0.827 0.000 33.58 Unknown
06/24/2022 03:45 AM 77.90 x 43.88 103.64 56.84 30.0 x x x x x 7.83 SW No 0.000 Unidentified Slight     0.000 0.000 0.000 0.827 0.000 33.92 Unknown
06/24/2022 03:46 AM 78.08 x 44.06 103.64 56.84 30.0 x x x x x 7.83 SW No 0.000 Unidentified Slight     0.000 0.000 0.000 0.827 0.000 33.58 Unknown
06/24/2022 03:47 AM 78.26 x 44.24 103.64 56.84 30.0 x x x x x 7.83 SW No 0.000 Unidentified Slight     0.000 0.000 0.000 0.827 0.000 32.12 Unknown
06/24/2022 03:48 AM 78.26 x 44.24 103.64 56.84 30.0 x x x x x 7.83 SW No 0.000 Unidentified Slight     0.000 0.000 0.000 0.827 0.000 33.74 Unknown
06/24/2022 03:49 AM 78.08 x 44.06 103.64 56.84 30.0 x x x x x 7.83 SW No 0.000 Unidentified Slight     0.000 0.000 0.000 0.827 0.000 32.37 Unknown
06/24/2022 03:50 AM 78.08 x 44.06 103.64 56.84 30.0 x x x x x 7.83 SW No 0.000 Unidentified Slight     0.000 0.000 0.000 0.827 0.000 33.29 Unknown
06/24/2022 03:51 AM 77.90 x 43.88 103.64 56.84 30.0 x x x x x 7.83 SW No 0.000 Unidentified Slight     0.000 0.000 0.000 0.827 0.000 31.97 Unknown
06/24/2022 03:52 AM 77.90 x 43.88 103.64 56.84 30.0 x x x x x 7.83 SW No 0.000 Unidentified Slight     0.000 0.000 0.000 0.827 0.000 33.05 Unknown
06/24/2022 03:53 AM 77.90 x 43.88 103.64 56.84 30.0 x x x x x 7.83 SW No 0.000 Unidentified Slight     0.000 0.000 0.000 0.827 0.000 32.31 Unknown
06/24/2022 03:54 AM 77.90 x 43.88 103.64 56.84 30.0 x x x x x 7.38 SW No 0.000 Unidentified Slight     0.000 0.000 0.000 0.827 0.000 32.39 Unknown
06/24/2022 03:55 AM 77.90 x 44.78 103.64 56.84 31.0 x x x x x 7.38 SW No 0.000 Unidentified Slight     0.000 0.000 0.000 0.827 0.000 32.76 Unknown
06/24/2022 03:56 AM 77.90 x 44.78 103.64 56.84 31.0 x x x x x 7.38 SW No 0.000 Unidentified Slight     0.000 0.000 0.000 0.827 0.000 32.46 Unknown
06/24/2022 03:57 AM 77.90 x 43.88 103.64 56.84 30.0 x x x x x 6.26 SW No 0.000 Unidentified Slight     0.000 0.000 0.000 0.827 0.000 31.42 Unknown
06/24/2022 03:58 AM 77.90 x 44.78 103.64 56.84 31.0 x x x x x 5.82 SW No 0.000 Unidentified Slight     0.000 0.000 0.000 0.827 0.000 32.82 Unknown
06/24/2022 03:59 AM 77.72 x 44.60 103.64 56.84 31.0 x x x x x 5.82 SW No 0.000 Unidentified Slight     0.000 0.000 0.000 0.827 0.000 31.39 Unknown
06/24/2022 04:00 AM 77.54 x 44.42 103.64 56.84 31.0 x x x x x 5.82 SW No 0.000 Unidentified Slight     0.000 0.000 0.000 0.827 0.000 30.58 Unknown
06/24/2022 04:01 AM 77.54 x 44.42 103.64 56.84 31.0 x x x x x 5.14 SW No 0.000 Unidentified Slight     0.000 0.000 0.000 0.827 0.000 29.84 Unknown
06/24/2022 04:02 AM 77.36 x 44.24 103.64 56.84 31.0 x x x x x 5.14 SW No 0.000 Unidentified Slight     0.000 0.000 0.000 0.827 0.000 30.37 Unknown
06/24/2022 04:03 AM 77.18 x 44.24 103.64 56.84 31.0 x x x x x 5.14 SW No 0.000 Unidentified Slight     0.000 0.000 0.000 0.827 0.000 29.53 Unknown
06/24/2022 04:04 AM 77.18 x 44.96 103.64 56.84 32.0 x x x x x 5.14 SW No 0.000 Unidentified Slight     0.000 0.000 0.000 0.827 0.000 28.75 Unknown
06/24/2022 04:05 AM 77.00 x 45.68 103.64 56.84 33.0 x x x x x 5.14 SW No 0.000 Unidentified Slight     0.000 0.000 0.000 0.827 0.000 29.71 Unknown
06/24/2022 04:06 AM 76.64 x 46.94 103.64 56.84 35.0 x x x x x 4.70 SW No 0.000 Unidentified Slight     0.000 0.000 0.000 0.827 0.000 32.52 Unknown
06/24/2022 04:07 AM 76.28 x 44.96 103.64 56.84 33.0 x x x x x 4.70 SW No 0.000 Unidentified Slight     0.000 0.000 0.000 0.827 0.000 32.15 Unknown
06/24/2022 04:08 AM 76.46 x 45.14 103.64 56.84 33.0 x x x x x 5.82 SW No 0.000 Unidentified Slight     0.000 0.000 0.000 0.827 0.000 32.17 Unknown
06/24/2022 04:09 AM 76.82 x 43.88 103.64 56.84 31.0 x x x x x 5.82 SW No 0.000 Unidentified Slight     0.000 0.000 0.000 0.827 0.000 31.18 Unknown
06/24/2022 04:10 AM 77.36 x 44.24 103.64 56.84 31.0 x x x x x 5.82 SW No 0.000 Unidentified Slight     0.000 0.000 0.000 0.827 0.000 32.95 Unknown
06/24/2022 04:11 AM 77.72 x 43.70 103.64 56.84 30.0 x x x x x 5.82 SW No 0.000 Unidentified Slight     0.000 0.000 0.000 0.827 0.000 27.28 Unknown
06/24/2022 04:12 AM 77.72 x 44.60 103.64 56.84 31.0 x x x x x 6.04 SW No 0.000 Unidentified Slight     0.000 0.000 0.000 0.827 0.000 32.02 Unknown
06/24/2022 04:13 AM 77.36 x 44.24 103.64 56.84 31.0 x x x x x 6.04 SW No 0.000 Unidentified Slight     0.000 0.000 0.000 0.827 0.000 32.77 Unknown
06/24/2022 04:14 AM 77.18 x 44.24 103.64 56.84 31.0 x x x x x 6.04 SW No 0.000 Unidentified Slight     0.000 0.000 0.000 0.827 0.000 31.78 Unknown
06/24/2022 04:15 AM 77.00 x 44.78 103.64 56.84 32.0 x x x x x 6.04 SW No 0.000 Unidentified Slight     0.000 0.000 0.000 0.827 0.000 16.31 Unknown
06/24/2022 04:16 AM 76.64 x 44.60 103.64 56.84 32.0 x x x x x 6.26 SW No 0.000 Unidentified Slight     0.000 0.000 0.000 0.827 0.000 8.92 Unknown
06/24/2022 04:17 AM 76.64 x 44.60 103.64 56.84 32.0 x x x x x 6.93 SW No 0.000 Unidentified Slight     0.000 0.000 0.000 0.827 0.000 26.48 Unknown
06/24/2022 04:18 AM 76.82 x 43.88 103.64 56.84 31.0 x x x x x 8.28 SW No 0.000 Unidentified Slight     0.000 0.000 0.000 0.827 0.000 20.51 Unknown
06/24/2022 04:19 AM 77.36 x 44.24 103.64 56.84 31.0 x x x x x 8.28 SW No 0.000 Unidentified Slight     0.000 0.000 0.000 0.827 0.000 25.08 Unknown
06/24/2022 04:20 AM 77.36 x 44.24 103.64 56.84 31.0 x x x x x 8.28 SW No 0.000 Unidentified Slight     0.000 0.000 0.000 0.827 0.000 32.87 Unknown
06/24/2022 04:21 AM 77.18 x 44.24 103.64 56.84 31.0 x x x x x 8.28 SW No 0.000 Unidentified Slight     0.000 0.000 0.000 0.827 0.000 33.11 Unknown
06/24/2022 04:22 AM 77.00 x 44.06 103.64 56.84 31.0 x x x x x 8.28 SW No 0.000 Unidentified Slight     0.000 0.000 0.000 0.827 0.000 32.07 Unknown
06/24/2022 04:23 AM 77.00 x 44.06 103.64 56.84 31.0 x x x x x 8.28 SW No 0.000 Unidentified Slight     0.000 0.000 0.000 0.827 0.000 32.65 Unknown
06/24/2022 04:24 AM 77.54 x 43.70 103.64 56.84 30.0 x x x x x 8.28 SW No 0.000 Unidentified Slight     0.000 0.000 0.000 0.827 0.000 30.55 Unknown
06/24/2022 04:25 AM 77.54 x 44.42 103.64 56.84 31.0 x x x x x 8.28 SW No 0.000 Unidentified Slight     0.000 0.000 0.000 0.827 0.000 27.51 Unknown
06/24/2022 04:26 AM 77.36 x 44.24 103.64 56.84 31.0 x x x x x 8.28 SW No 0.000 Unidentified Slight     0.000 0.000 0.000 0.827 0.000 34.02 Unknown
06/24/2022 04:27 AM 77.18 x 44.24 103.64 56.84 31.0 x x x x x 7.38 SW No 0.000 Unidentified Slight     0.000 0.000 0.000 0.827 0.000 32.07 Unknown
06/24/2022 04:28 AM 77.18 x 44.24 103.64 56.84 31.0 x x x x x 7.38 SW No 0.000 Unidentified Slight     0.000 0.000 0.000 0.827 0.000 32.45 Unknown
06/24/2022 04:29 AM 76.64 x 48.38 103.64 56.84 37.0 x x x x x 7.38 SW No 0.000 Unidentified Slight     0.000 0.000 0.000 0.827 0.000 31.57 Unknown
06/24/2022 04:30 AM 75.38 x 48.74 103.64 56.84 39.0 x x x x x 7.38 SW No 0.000 Unidentified Slight     0.000 0.000 0.000 0.827 0.000 32.53 Unknown
06/24/2022 04:31 AM 74.48 x 49.28 103.64 56.84 41.0 x x x x x 7.38 SW No 0.000 Unidentified Slight     0.000 0.000 0.000 0.827 0.000 30.70 Unknown
06/24/2022 04:32 AM 74.12 x 46.76 103.64 56.84 38.0 x x x x x 6.26 SW No 0.000 Unidentified Slight     0.000 0.000 0.000 0.827 0.000 30.98 Unknown
06/24/2022 04:33 AM 74.84 x 46.04 103.64 56.84 36.0 x x x x x 5.37 SW No 0.000 Unidentified Slight     0.000 0.000 0.000 0.827 0.000 32.95 Unknown
06/24/2022 04:34 AM 75.74 x 45.32 103.64 56.84 34.0 x x x x x 5.37 SW No 0.000 Unidentified Slight     0.000 0.000 0.000 0.827 0.000 32.03 Unknown
06/24/2022 04:35 AM 76.64 x 44.60 103.64 56.84 32.0 x x x x x 5.37 SW No 0.000 Unidentified Slight     0.000 0.000 0.000 0.827 0.000 33.17 Unknown
06/24/2022 04:36 AM 77.00 x 44.78 103.64 56.84 32.0 x x x x x 5.37 SW No 0.000 Unidentified Slight     0.000 0.000 0.000 0.827 0.000 33.73 Unknown
06/24/2022 04:37 AM 77.00 x 44.06 103.64 56.84 31.0 x x x x x 5.37 SW No 0.000 Unidentified Slight     0.000 0.000 0.000 0.827 0.000 32.95 Unknown
06/24/2022 04:38 AM 76.82 x 47.12 103.64 56.84 35.0 x x x x x 5.37 SW No 0.000 Unidentified Slight     0.000 0.000 0.000 0.827 0.000 32.29 Unknown
06/24/2022 04:39 AM 75.92 x 47.66 103.64 56.84 37.0 x x x x x 5.37 SW No 0.000 Unidentified Slight     0.000 0.000 0.000 0.827 0.000 31.81 Unknown
06/24/2022 04:40 AM 75.38 x 48.02 103.64 56.84 38.0 x x x x x 5.37 SW No 0.000 Unidentified Slight     0.000 0.000 0.000 0.827 0.000 33.45 Unknown
06/24/2022 04:41 AM 75.02 x 47.66 103.64 56.84 38.0 x x x x x 5.37 SW No 0.000 Unidentified Slight     0.000 0.000 0.000 0.827 0.000 32.17 Unknown
06/24/2022 04:42 AM 74.84 x 48.20 103.64 56.84 39.0 x x x x x 4.25 SW No 0.000 Unidentified Slight     0.000 0.000 0.000 0.827 0.000 32.06 Unknown
06/24/2022 04:43 AM 74.48 x 48.56 103.64 56.84 40.0 x x x x x 4.25 SW No 0.000 Unidentified Slight     0.000 0.000 0.000 0.827 0.000 30.92 Unknown
06/24/2022 04:44 AM 74.12 x 47.48 103.64 56.84 39.0 x x x x x 4.25 SW No 0.000 Unidentified Slight     0.000 0.000 0.000 0.827 0.000 25.26 Unknown
06/24/2022 04:45 AM 74.30 x 46.22 103.64 56.84 37.0 x x x x x 4.25 SW No 0.000 Unidentified Slight     0.000 0.000 0.000 0.827 0.000 29.58 Unknown
06/24/2022 04:46 AM 74.66 x 47.30 103.64 56.84 38.0 x x x x x 4.25 SW No 0.000 Unidentified Slight     0.000 0.000 0.000 0.827 0.000 32.68 Unknown
06/24/2022 04:47 AM 74.84 x 47.48 103.64 56.84 38.0 x x x x x 3.80 SW No 0.000 Unidentified Slight     0.000 0.000 0.000 0.827 0.000 31.75 Unknown
06/24/2022 04:48 AM 74.66 x 47.30 103.64 56.84 38.0 x x x x x 3.80 SW No 0.000 Unidentified Slight     0.000 0.000 0.000 0.827 0.000 31.64 Unknown
06/24/2022 04:49 AM 74.84 x 48.20 103.64 56.84 39.0 x x x x x 3.80 SW No 0.000 Unidentified Slight     0.000 0.000 0.000 0.827 0.000 30.94 Unknown
06/24/2022 04:50 AM 74.66 x 48.74 103.64 56.84 40.0 x x x x x 3.80 SW No 0.000 Unidentified Slight     0.000 0.000 0.000 0.827 0.000 30.54 Unknown
06/24/2022 04:51 AM 74.12 x 48.20 103.64 56.84 40.0 x x x x x 3.80 SW No 0.000 Unidentified Slight     0.000 0.000 0.000 0.827 0.000 31.02 Unknown
06/24/2022 04:52 AM 73.94 x 48.74 103.64 56.84 41.0 x x x x x 3.80 SW No 0.000 Unidentified Slight     0.000 0.000 0.000 0.827 0.000 27.34 Unknown
06/24/2022 04:53 AM 73.94 x 48.74 103.64 56.84 41.0 x x x x x 3.80 SW No 0.000 Unidentified Slight     0.000 0.000 0.000 0.827 0.000 27.20 Unknown
06/24/2022 04:54 AM 73.58 x 49.10 103.64 56.84 42.0 x x x x x 4.03 SW No 0.000 Unidentified Slight     0.000 0.000 0.000 0.827 0.000 27.42 Unknown
06/24/2022 04:55 AM 73.22 x 49.28 103.64 56.84 43.0 x x x x x 4.03 SW No 0.000 Unidentified Slight     0.000 0.000 0.000 0.827 0.000 28.33 Unknown
06/24/2022 04:56 AM 73.22 x 48.74 103.64 56.84 42.0 x x x x x 4.03 SW No 0.000 Unidentified Slight     0.000 0.000 0.000 0.827 0.000 29.46 Unknown
06/24/2022 04:57 AM 73.22 x 50.00 103.64 56.84 44.0 x x x x x 4.03 SW No 0.000 Unidentified Slight     0.000 0.000 0.000 0.827 0.000 29.94 Unknown
06/24/2022 04:58 AM 73.04 x 49.10 103.64 56.84 43.0 x x x x x 4.03 SW No 0.000 Unidentified Slight     0.000 0.000 0.000 0.827 0.000 30.06 Unknown
06/24/2022 04:59 AM 73.04 x 49.10 103.64 56.84 43.0 x x x x x 4.03 SW No 0.000 Unidentified Slight     0.000 0.000 0.000 0.827 0.000 31.01 Unknown
06/24/2022 05:00 AM 72.86 x 49.64 103.64 56.84 44.0 x x x x x 4.03 SW No 0.000 Unidentified Slight     0.000 0.000 0.000 0.827 0.000 33.12 Unknown
06/24/2022 05:01 AM 72.50 x 49.28 103.64 56.84 44.0 x x x x x 4.03 SW No 0.000 Unidentified Slight     0.000 0.000 0.000 0.827 0.000 31.23 Unknown
06/24/2022 05:02 AM 72.50 x 49.28 103.64 56.84 44.0 x x x x x 4.03 SW No 0.000 Unidentified Slight     0.000 0.000 0.000 0.827 0.000 33.22 Unknown
06/24/2022 05:03 AM 72.32 x 49.82 103.64 56.84 45.0 x x x x x 3.36 SW No 0.000 Unidentified Slight     0.000 0.000 0.000 0.827 0.000 32.55 Unknown
06/24/2022 05:04 AM 72.14 x 49.64 103.64 56.84 45.0 x x x x x 3.36 SW No 0.000 Unidentified Slight     0.000 0.000 0.000 0.827 0.000 32.32 Unknown
06/24/2022 05:05 AM 71.96 x 49.46 103.64 56.84 45.0 x x x x x 2.91 SW No 0.000 Unidentified Slight     0.000 0.000 0.000 0.827 0.000 32.00 Unknown
06/24/2022 05:06 AM 71.96 x 50.00 103.64 56.84 46.0 x x x x x 2.91 SW No 0.000 Unidentified Slight     0.000 0.000 0.000 0.827 0.000 28.70 Unknown
06/24/2022 05:07 AM 71.78 x 49.28 103.64 56.84 45.0 x x x x x 2.68 SW No 0.000 Unidentified Slight     0.000 0.000 0.000 0.827 0.000 30.06 Unknown
06/24/2022 05:08 AM 71.78 x 49.28 103.64 56.84 45.0 x x x x x 2.68 SW No 0.000 Unidentified Slight     0.000 0.000 0.000 0.827 0.000 31.57 Unknown
06/24/2022 05:09 AM 71.96 x 49.46 103.64 56.84 45.0 x x x x x 4.25 SW No 0.000 Unidentified Slight     0.000 0.000 0.000 0.827 0.000 30.47 Unknown
06/24/2022 05:10 AM 71.96 x 50.00 103.64 56.84 46.0 x x x x x 4.92 SW No 0.000 Unidentified Slight     0.000 0.000 0.000 0.827 0.000 31.65 Unknown
06/24/2022 05:11 AM 71.78 x 49.28 103.64 56.84 45.0 x x x x x 4.92 SW No 0.000 Unidentified Slight     0.000 0.000 0.000 0.827 0.000 32.22 Unknown
06/24/2022 05:12 AM 71.78 x 48.56 103.64 56.84 44.0 x x x x x 4.92 SW No 0.000 Unidentified Slight     0.000 0.000 0.000 0.827 0.000 32.16 Unknown
06/24/2022 05:13 AM 71.96 x 48.74 103.64 56.84 44.0 x x x x x 4.92 SW No 0.000 Unidentified Slight     0.000 0.000 0.000 0.827 0.000 32.13 Unknown
06/24/2022 05:14 AM 71.78 x 49.28 103.64 56.84 45.0 x x x x x 4.92 SW No 0.000 Unidentified Slight     0.000 0.000 0.000 0.827 0.000 31.42 Unknown
06/24/2022 05:15 AM 71.60 x 49.10 103.64 56.84 45.0 x x x x x 4.92 SW No 0.000 Unidentified Slight     0.000 0.000 0.000 0.827 0.000 32.85 Unknown
06/24/2022 05:16 AM 71.60 x 48.56 103.64 56.84 44.0 x x x x x 4.92 SW No 0.000 Unidentified Slight     0.000 0.000 0.000 0.827 0.000 33.03 Unknown
06/24/2022 05:17 AM 71.60 x 49.10 103.64 56.84 45.0 x x x x x 4.92 SW No 0.000 Unidentified Slight     0.000 0.000 0.000 0.827 0.000 31.49 Unknown
06/24/2022 05:18 AM 71.60 x 48.56 103.64 56.84 44.0 x x x x x 5.14 SW No 0.000 Unidentified Slight     0.000 0.000 0.000 0.827 0.000 31.46 Unknown
06/24/2022 05:19 AM 71.78 x 48.02 103.64 56.84 43.0 x x x x x 5.59 SW No 0.000 Unidentified Slight     0.000 0.000 0.000 0.827 0.000 30.49 Unknown
06/24/2022 05:20 AM 72.14 x 47.66 103.64 56.84 42.0 x x x x x 5.59 SW No 0.000 Unidentified Slight     0.000 0.000 0.000 0.827 0.000 30.39 Unknown
06/24/2022 05:21 AM 72.32 x 47.84 103.64 56.84 42.0 x x x x x 6.26 SW No 0.000 Unidentified Slight     0.000 0.000 0.000 0.827 0.000 31.17 Unknown
06/24/2022 05:22 AM 72.50 x 48.02 103.64 56.84 42.0 x x x x x 6.71 SW No 0.000 Unidentified Slight     0.000 0.000 0.000 0.827 0.000 29.85 Unknown
06/24/2022 05:23 AM 72.68 x 48.20 103.64 56.84 42.0 x x x x x 6.71 SW No 0.000 Unidentified Slight     0.000 0.000 0.000 0.827 0.000 30.22 Unknown
06/24/2022 05:24 AM 72.86 x 47.66 103.64 56.84 41.0 x x x x x 6.71 SW No 0.000 Unidentified Slight     0.000 0.000 0.000 0.827 0.000 31.50 Unknown
06/24/2022 05:25 AM 73.58 x 47.12 103.64 56.84 39.0 x x x x x 6.71 SW No 0.000 Unidentified Slight     0.000 0.000 0.000 0.827 0.000 30.29 Unknown
06/24/2022 05:26 AM 73.94 x 48.02 103.64 56.84 40.0 x x x x x 6.71 SW No 0.000 Unidentified Slight     0.000 0.000 0.000 0.827 0.000 20.07 Unknown
06/24/2022 05:27 AM 73.76 x 48.56 103.64 56.84 41.0 x x x x x 6.71 SW No 0.000 Unidentified Slight     0.000 0.000 0.000 0.827 0.000 29.69 Unknown
06/24/2022 05:28 AM 73.22 x 49.28 103.64 56.84 43.0 x x x x x 6.71 SW No 0.000 Unidentified Slight     0.000 0.000 0.000 0.827 0.000 25.99 Unknown
06/24/2022 05:29 AM 72.50 x 49.28 103.64 56.84 44.0 x x x x x 6.71 SW No 0.000 Unidentified Slight     0.000 0.000 0.000 0.827 0.000 27.14 Unknown
06/24/2022 05:30 AM 71.96 x 49.46 103.64 56.84 45.0 x x x x x 6.71 SW No 0.000 Unidentified Slight     0.000 0.000 0.000 0.827 0.000 24.59 Unknown
06/24/2022 05:31 AM 71.78 x 49.82 103.64 56.84 46.0 x x x x x 6.49 SW No 0.000 Unidentified Slight     0.000 0.000 0.000 0.827 0.000 30.54 Unknown
06/24/2022 05:32 AM 71.42 x 50.00 103.64 56.84 47.0 x x x x x 5.59 SW No 0.000 Unidentified Slight     0.000 0.000 0.000 0.827 0.000 29.65 Unknown
06/24/2022 05:33 AM 71.06 x 50.90 103.64 56.84 49.0 x x x x x 4.92 SW No 0.000 Unidentified Slight     0.000 0.000 0.000 0.827 0.000 29.76 Unknown
06/24/2022 05:34 AM 70.70 x 51.62 103.64 56.84 51.0 x x x x x 6.04 SW No 0.000 Unidentified Slight     0.000 0.000 0.000 0.827 0.000 28.31 Unknown
06/24/2022 05:35 AM 69.98 x 51.44 103.64 56.84 52.0 x x x x x 6.49 SW No 0.000 Unidentified Slight     0.000 0.000 0.000 0.827 0.000 30.74 Unknown
06/24/2022 05:36 AM 69.62 x 51.62 103.64 56.84 53.0 x x x x x 6.49 SW No 0.000 Unidentified Slight     0.000 0.000 0.000 0.827 0.000 29.55 Unknown
06/24/2022 05:37 AM 69.62 x 51.62 103.64 56.84 53.0 x x x x x 6.49 SW No 0.000 Unidentified Slight     0.000 0.000 0.000 0.827 0.000 31.28 Unknown
06/24/2022 05:38 AM 69.44 x 51.44 103.64 56.84 53.0 x x x x x 6.49 SW No 0.000 Unidentified Slight     0.000 0.000 0.000 0.827 0.000 30.77 Unknown
06/24/2022 05:39 AM 69.62 x 52.16 103.64 56.84 54.0 x x x x x 6.49 SW No 0.000 Unidentified Slight     0.000 0.000 0.000 0.827 0.000 28.34 Unknown
06/24/2022 05:40 AM 69.44 x 51.98 103.64 56.84 54.0 x x x x x 6.49 SW No 0.000 Unidentified Slight     0.000 0.000 0.000 0.827 0.000 22.60 Unknown
06/24/2022 05:41 AM 69.44 x 51.98 103.64 56.84 54.0 x x x x x 6.49 SW No 0.000 Unidentified Slight     0.000 0.000 0.000 0.827 0.000 29.11 Unknown
06/24/2022 05:42 AM 69.44 x 51.44 103.64 56.84 53.0 x x x x x 6.49 SW No 0.000 Unidentified Slight     0.000 0.000 0.000 0.827 0.000 28.27 Unknown
06/24/2022 05:43 AM 69.62 x 52.16 103.64 56.84 54.0 x x x x x 6.49 SW No 0.000 Unidentified Slight     0.000 0.000 0.000 0.827 0.000 22.69 Unknown
06/24/2022 05:44 AM 69.62 x 51.62 103.64 56.84 53.0 x x x x x 6.26 SW No 0.000 Unidentified Slight     0.000 0.000 0.000 0.827 0.000 26.71 Unknown
06/24/2022 05:45 AM 69.62 x 51.08 103.64 56.84 52.0 x x x x x 6.26 SW No 0.000 Unidentified Slight     0.000 0.000 0.000 0.827 0.000 30.97 Unknown
06/24/2022 05:46 AM 69.80 x 51.26 103.64 56.84 52.0 x x x x x 6.26 SW No 0.000 Unidentified Slight     0.000 0.000 0.000 0.827 0.000 30.65 Unknown
06/24/2022 05:47 AM 69.80 x 51.26 103.64 56.84 52.0 x x x x x 6.26 SW No 0.000 Unidentified Slight     0.000 0.000 0.000 0.827 0.000 26.69 Unknown
06/24/2022 05:48 AM 69.98 x 50.36 103.64 56.84 50.0 x x x x x 6.26 SW No 0.000 Unidentified Slight     0.000 0.000 0.000 0.827 0.000 30.37 Unknown
06/24/2022 05:49 AM 70.16 x 51.08 103.64 56.84 51.0 x x x x x 6.26 SW No 0.000 Unidentified Slight     0.000 0.000 0.000 0.827 0.000 30.81 Unknown
06/24/2022 05:50 AM 70.16 x 51.08 103.64 56.84 51.0 x x x x x 6.26 SW No 0.000 Unidentified Slight     0.000 0.000 0.000 0.827 0.000 30.09 Unknown
06/24/2022 05:51 AM 70.16 x 51.08 103.64 56.84 51.0 x x x x x 6.26 SW No 0.000 Unidentified Slight     0.000 0.000 0.000 0.827 0.000 30.53 Unknown
06/24/2022 05:52 AM 70.16 x 51.08 103.64 56.84 51.0 x x x x x 6.26 SW No 0.000 Unidentified Slight     0.000 0.000 0.000 0.827 0.000 32.63 Unknown
06/24/2022 05:53 AM 70.34 x 51.26 103.64 56.84 51.0 x x x x x 5.37 SW No 0.000 Unidentified Slight     0.000 0.000 0.000 0.827 0.000 31.09 Unknown
06/24/2022 05:54 AM 70.52 x 51.44 103.64 56.84 51.0 x x x x x 5.37 SW No 0.000 Unidentified Slight     0.000 0.000 0.000 0.827 0.000 27.96 Unknown
06/24/2022 05:55 AM 70.70 x 51.62 103.64 56.84 51.0 x x x x x 5.37 SW No 0.000 Unidentified Slight     0.000 0.000 0.000 0.827 0.000 29.47 Unknown
06/24/2022 05:56 AM 70.70 x 51.62 103.64 56.84 51.0 x x x x x 5.37 SW No 0.000 Unidentified Slight     0.000 0.000 0.000 0.827 0.000 31.67 Unknown
06/24/2022 05:57 AM 70.88 x 51.26 103.64 56.84 50.0 x x x x x 5.37 SW No 0.000 Unidentified Slight     0.000 0.000 0.000 0.827 0.000 29.26 Unknown
06/24/2022 05:58 AM 70.88 x 51.26 103.64 56.84 50.0 x x x x x 5.59 SW No 0.000 Unidentified Slight     0.000 0.000 0.000 0.827 0.000 29.10 Unknown
06/24/2022 05:59 AM 70.88 x 51.26 103.64 56.84 50.0 x x x x x 5.59 SW No 0.000 Unidentified Slight     0.000 0.000 0.000 0.827 0.000 30.69 Unknown
06/24/2022 06:00 AM 71.06 x 51.44 103.64 56.84 50.0 x x x x x 5.59 SW No 0.000 Unidentified Slight     0.000 0.000 0.000 0.827 0.000 30.64 Unknown
06/24/2022 06:01 AM 71.24 x 51.08 103.64 56.84 49.0 x x x x x 5.59 SW No 0.000 Unidentified Slight     0.000 0.000 0.000 0.827 0.000 30.40 Unknown
06/24/2022 06:02 AM 71.42 x 51.26 103.64 56.84 49.0 x x x x x 5.59 SW No 0.000 Unidentified Slight     0.000 0.000 0.000 0.827 0.000 30.11 Unknown
06/24/2022 06:03 AM 71.60 x 50.90 103.64 56.84 48.0 x x x x x 5.59 SW No 0.000 Unidentified Slight     0.000 0.000 0.000 0.827 0.000 30.88 Unknown
06/24/2022 06:04 AM 71.78 x 50.90 103.64 56.84 48.0 x x x x x 5.59 SW No 0.000 Unidentified Slight     0.000 0.000 0.000 0.827 0.000 32.22 Unknown
06/24/2022 06:05 AM 71.78 x 50.90 103.64 56.84 48.0 x x x x x 5.59 SW No 0.000 Unidentified Slight     0.000 0.000 0.000 0.827 0.000 29.88 Unknown
06/24/2022 06:06 AM 71.96 x 50.54 103.64 56.84 47.0 x x x x x 5.59 SW No 0.000 Unidentified Slight     0.000 0.000 0.000 0.827 0.000 27.71 Unknown
06/24/2022 06:07 AM 72.50 x 50.54 103.64 56.84 46.0 x x x x x 5.59 SW No 0.000 Unidentified Slight     0.000 0.000 0.000 0.827 0.000 16.82 Unknown
06/24/2022 06:08 AM 72.86 x 50.18 103.64 56.84 45.0 x x x x x 5.37 SW No 0.000 Unidentified Slight     0.000 0.000 0.000 0.827 0.000 22.46 Unknown
06/24/2022 06:09 AM 73.22 x 50.00 103.64 56.84 44.0 x x x x x 5.37 SW No 0.000 Unidentified Slight     0.000 0.000 0.000 0.827 0.000 16.76 Unknown
06/24/2022 06:10 AM 73.40 x 50.18 103.64 56.84 44.0 x x x x x 5.37 SW No 0.000 Unidentified Slight     0.000 0.000 0.000 0.827 0.000 24.81 Unknown
06/24/2022 06:11 AM 73.58 x 50.36 103.64 56.84 44.0 x x x x x 4.47 SW No 0.000 Unidentified Slight     0.000 0.000 0.000 0.827 0.000 29.52 Unknown
06/24/2022 06:12 AM 73.76 x 50.36 103.64 56.84 44.0 x x x x x 3.58 SW No 0.000 Unidentified Slight     0.000 0.000 0.000 0.827 0.000 29.13 Unknown
06/24/2022 06:13 AM 73.94 x 50.00 103.64 56.84 43.0 x x x x x 3.58 SW No 0.000 Unidentified Slight     0.000 0.000 0.000 0.827 0.000 28.87 Unknown
06/24/2022 06:14 AM 74.12 x 50.18 103.64 56.84 43.0 x x x x x 3.58 SW No 0.000 Unidentified Slight     0.000 0.000 0.000 0.827 0.000 28.40 Unknown
06/24/2022 06:15 AM 74.48 x 50.54 103.64 56.84 43.0 x x x x x 3.58 SW No 0.000 Unidentified Slight     0.000 0.000 0.000 0.827 0.000 32.96 Unknown
06/24/2022 06:16 AM 74.84 x 49.46 103.64 56.84 41.0 x x x x x 3.58 SW No 0.000 Unidentified Slight     0.000 0.000 0.000 0.827 0.000 32.36 Unknown
06/24/2022 06:17 AM 74.84 x 49.46 103.64 56.84 41.0 x x x x x 3.13 SW No 0.000 Unidentified Slight     0.000 0.000 0.000 0.827 0.000 33.59 Unknown
06/24/2022 06:18 AM 75.02 x 49.64 103.64 56.84 41.0 x x x x x 2.91 SW No 0.000 Unidentified Slight     0.000 0.000 0.000 0.827 0.000 26.80 Unknown
06/24/2022 06:19 AM 75.20 x 49.10 103.64 56.84 40.0 x x x x x 2.46 SW No 0.000 Unidentified Slight     0.000 0.000 0.000 0.827 0.000 35.03 Unknown
06/24/2022 06:20 AM 75.38 x 48.74 103.64 56.84 39.0 x x x x x 2.91 SW No 0.000 Unidentified Slight     0.000 0.000 0.000 0.827 0.000 28.61 Unknown
06/24/2022 06:21 AM 75.20 x 49.82 103.64 56.84 41.0 x x x x x 2.91 SW No 0.000 Unidentified Slight     0.000 0.000 0.000 0.827 0.000 21.01 Unknown
06/24/2022 06:22 AM 75.02 x 49.64 103.64 56.84 41.0 x x x x x 2.91 SW No 0.000 Unidentified Slight     0.000 0.000 0.000 0.827 0.000 22.49 Unknown
06/24/2022 06:23 AM 75.02 x 48.38 103.64 56.84 39.0 x x x x x 2.91 SW No 0.000 Unidentified Slight     0.000 0.000 0.000 0.827 0.000 24.04 Unknown
06/24/2022 06:24 AM 75.20 x 48.56 103.64 56.84 39.0 x x x x x 2.91 SW No 0.000 Unidentified Slight     0.000 0.000 0.000 0.827 0.000 13.22 Unknown
06/24/2022 06:25 AM 75.56 x 48.74 103.64 56.84 39.0 x x x x x 2.91 SW No 0.000 Unidentified Slight     0.000 0.000 0.000 0.827 0.000 13.93 Unknown
06/24/2022 06:26 AM 76.10 x 48.56 103.64 56.84 38.0 x x x x x 2.91 SW No 0.000 Unidentified Slight     0.000 0.000 0.000 0.827 0.000 20.71 Unknown
06/24/2022 06:27 AM 76.46 x 47.48 103.64 56.84 36.0 x x x x x 2.91 SW No 0.000 Unidentified Slight     0.000 0.000 0.000 0.827 0.000 20.71 Unknown
06/24/2022 06:28 AM 76.46 x 48.20 103.64 56.84 37.0 x x x x x 2.91 SW No 0.000 Unidentified Slight     0.000 0.000 0.000 0.827 0.000 22.68 Unknown
06/24/2022 06:29 AM 76.46 x 48.92 103.64 56.84 38.0 x x x x x 2.24 SW No 0.000 Unidentified Slight     0.000 0.000 0.000 0.827 0.000 17.90 Unknown
06/24/2022 06:30 AM 76.46 x 48.20 103.64 56.84 37.0 x x x x x 2.24 SW No 0.000 Unidentified Slight     0.000 0.000 0.000 0.827 0.000 21.00 Unknown
06/24/2022 06:31 AM 76.64 x 48.38 103.64 56.84 37.0 x x x x x 2.24 SW No 0.000 Unidentified Slight     0.000 0.000 0.000 0.827 0.000 20.42 Unknown
06/24/2022 06:32 AM 76.64 x 47.66 103.64 56.84 36.0 x x x x x 2.24 SW No 0.000 Unidentified Slight     0.000 0.000 0.000 0.827 0.000 20.42 Unknown
06/24/2022 06:33 AM 77.00 x 48.02 103.64 56.84 36.0 x x x x x 2.68 SW No 0.000 Unidentified Slight     0.000 0.000 0.000 0.827 0.000 23.14 Unknown
06/24/2022 06:34 AM 77.00 x 47.12 103.64 56.84 35.0 x x x x x 3.13 SW No 0.000 Unidentified Slight     0.000 0.000 0.000 0.827 0.000 15.57 Unknown
06/24/2022 06:35 AM 77.18 x 46.58 103.64 56.84 34.0 x x x x x 3.80 SW No 0.000 Unidentified Slight     0.000 0.000 0.000 0.827 0.000 18.92 Unknown
06/24/2022 06:36 AM 77.36 x 47.48 103.64 56.84 35.0 x x x x x 3.80 SW No 0.000 Unidentified Slight     0.000 0.000 0.000 0.827 0.000 22.49 Unknown
06/24/2022 06:37 AM 77.36 x 48.20 103.64 56.84 36.0 x x x x x 3.80 SW No 0.000 Unidentified Slight     0.000 0.000 0.000 0.827 0.000 25.48 Unknown
06/24/2022 06:38 AM 77.36 x 49.64 103.64 56.84 38.0 x x x x x 3.80 SW No 0.000 Unidentified Slight     0.000 0.000 0.000 0.827 0.000 24.84 Unknown
06/24/2022 06:39 AM 77.00 x 51.44 103.64 56.84 41.0 x x x x x 3.80 SW No 0.000 Unidentified Slight     0.000 0.000 0.000 0.827 0.000 21.66 Unknown
06/24/2022 06:40 AM 76.46 x 50.90 103.64 56.84 41.0 x x x x x 3.80 SW No 0.000 Unidentified Slight     0.000 0.000 0.000 0.827 0.000 20.55 Unknown
06/24/2022 06:41 AM 76.46 x 50.90 103.64 56.84 41.0 x x x x x 3.80 SW No 0.000 Unidentified Slight     0.000 0.000 0.000 0.827 0.000 22.77 Unknown
06/24/2022 06:42 AM 76.10 x 51.98 103.64 56.84 43.0 x x x x x 3.80 SW No 0.000 Unidentified Slight     0.000 0.000 0.000 0.827 0.000 26.20 Unknown
06/24/2022 06:43 AM 75.38 x 51.26 103.64 56.84 43.0 x x x x x 3.80 SW No 0.000 Unidentified Slight     0.000 0.000 0.000 0.827 0.000 29.00 Unknown
06/24/2022 06:44 AM 75.20 x 51.80 103.64 56.84 44.0 x x x x x 3.58 SW No 0.000 Unidentified Slight     0.000 0.000 0.000 0.827 0.000 26.82 Unknown
06/24/2022 06:45 AM 75.02 x 51.62 103.64 56.84 44.0 x x x x x 2.46 SW No 0.000 Unidentified Slight     0.000 0.000 0.000 0.827 0.000 26.02 Unknown
06/24/2022 06:46 AM 74.66 x 51.26 103.64 56.84 44.0 x x x x x 2.46 SW No 0.000 Unidentified Slight     0.000 0.000 0.000 0.827 0.000 30.92 Unknown
06/24/2022 06:47 AM 75.02 x 51.62 103.64 56.84 44.0 x x x x x 2.46 SW No 0.000 Unidentified Slight     0.000 0.000 0.000 0.827 0.000 28.86 Unknown
06/24/2022 06:48 AM 75.38 x 51.26 103.64 56.84 43.0 x x x x x 2.46 SW No 0.000 Unidentified Slight     0.000 0.000 0.000 0.827 0.000 23.76 Unknown
06/24/2022 06:49 AM 75.38 x 50.72 103.64 56.84 42.0 x x x x x 2.46 SW No 0.000 Unidentified Slight     0.000 0.000 0.000 0.827 0.000 24.63 Unknown
06/24/2022 06:50 AM 75.56 x 48.74 103.64 56.84 39.0 x x x x x 2.46 SW No 0.000 Unidentified Slight     0.000 0.000 0.000 0.827 0.000 24.12 Unknown
06/24/2022 06:51 AM 75.74 x 48.92 103.64 56.84 39.0 x x x x x 1.79 SW No 0.000 Unidentified Slight     0.000 0.000 0.000 0.827 0.000 27.63 Unknown
06/24/2022 06:52 AM 75.92 x 49.10 103.64 56.84 39.0 x x x x x 1.79 SW No 0.000 Unidentified Slight     0.000 0.000 0.000 0.827 0.000 28.73 Unknown
06/24/2022 06:53 AM 76.28 x 48.74 103.64 56.84 38.0 x x x x x 1.79 SW No 0.000 Unidentified Slight     0.000 0.000 0.000 0.827 0.000 28.46 Unknown
06/24/2022 06:54 AM 76.46 x 47.48 103.64 56.84 36.0 x x x x x 2.24 SW No 0.000 Unidentified Slight     0.000 0.000 0.000 0.827 0.000 26.76 Unknown
06/24/2022 06:55 AM 76.64 x 47.66 103.64 56.84 36.0 x x x x x 2.24 SW No 0.000 Unidentified Slight     0.000 0.000 0.000 0.827 0.000 26.22 Unknown
06/24/2022 06:56 AM 76.64 x 47.66 103.64 56.84 36.0 x x x x x 2.46 SW No 0.000 Unidentified Slight     0.000 0.000 0.000 0.827 0.000 26.68 Unknown
06/24/2022 06:57 AM 76.82 x 47.84 103.64 56.84 36.0 x x x x x 2.46 SW No 0.000 Unidentified Slight     0.000 0.000 0.000 0.827 0.000 25.10 Unknown
06/24/2022 06:58 AM 76.82 x 47.12 103.64 56.84 35.0 x x x x x 2.68 SW No 0.000 Unidentified Slight     0.000 0.000 0.000 0.827 0.000 29.18 Unknown
06/24/2022 06:59 AM 76.82 x 47.12 103.64 56.84 35.0 x x x x x 3.36 SW No 0.000 Unidentified Slight     0.000 0.000 0.000 0.827 0.000 31.13 Unknown
06/24/2022 07:00 AM 77.00 x 47.12 103.64 56.84 35.0 x x x x x 3.58 SW No 0.000 Unidentified Slight     0.000 0.000 0.000 0.827 0.000 29.66 Unknown
06/24/2022 07:01 AM 77.00 x 47.12 103.64 56.84 35.0 x x x x x 3.80 SW No 0.000 Unidentified Slight     0.000 0.000 0.000 0.827 0.000 23.05 Unknown
06/24/2022 07:02 AM 77.18 x 47.30 103.64 56.84 35.0 x x x x x 4.70 SW No 0.000 Unidentified Slight     0.000 0.000 0.000 0.827 0.000 22.88 Unknown
06/24/2022 07:03 AM 77.18 x 47.30 103.64 56.84 35.0 x x x x x 4.70 SW No 0.000 Unidentified Slight     0.000 0.000 0.000 0.827 0.000 21.92 Unknown
06/24/2022 07:04 AM 77.36 x 46.76 103.64 56.84 34.0 x x x x x 4.70 SW No 0.000 Unidentified Slight     0.000 0.000 0.000 0.827 0.000 21.73 Unknown
06/24/2022 07:05 AM 77.54 x 47.66 103.64 56.84 35.0 x x x x x 4.70 SW No 0.000 Unidentified Slight     0.000 0.000 0.000 0.827 0.000 25.45 Unknown
06/24/2022 07:06 AM 77.72 x 47.12 103.64 56.84 34.0 x x x x x 4.70 SW No 0.000 Unidentified Slight     0.000 0.000 0.000 0.827 0.000 31.32 Unknown
06/24/2022 07:07 AM 77.72 x 47.12 103.64 56.84 34.0 x x x x x 4.70 SW No 0.000 Unidentified Slight     0.000 0.000 0.000 0.827 0.000 24.52 Unknown
06/24/2022 07:08 AM 77.72 x 47.12 103.64 56.84 34.0 x x x x x 4.70 SW No 0.000 Unidentified Slight     0.000 0.000 0.000 0.827 0.000 28.68 Unknown
06/24/2022 07:09 AM 78.08 x 46.58 103.64 56.84 33.0 x x x x x 4.70 SW No 0.000 Unidentified Slight     0.000 0.000 0.000 0.827 0.000 33.63 Unknown
06/24/2022 07:10 AM 78.26 x 45.86 103.64 56.84 32.0 x x x x x 4.70 SW No 0.000 Unidentified Slight     0.000 0.000 0.000 0.827 0.000 28.28 Unknown
06/24/2022 07:11 AM 78.44 x 45.32 103.64 56.84 31.0 x x x x x 4.25 SW No 0.000 Unidentified Slight     0.000 0.000 0.000 0.827 0.000 27.80 Unknown
06/24/2022 07:12 AM 78.44 x 46.04 103.64 56.84 32.0 x x x x x 4.70 SW No 0.000 Unidentified Slight     0.000 0.000 0.000 0.827 0.000 33.09 Unknown
06/24/2022 07:13 AM 78.98 x 45.68 103.64 56.84 31.0 x x x x x 5.59 SW No 0.000 Unidentified Slight     0.000 0.000 0.000 0.827 0.000 28.21 Unknown
06/24/2022 07:14 AM 78.98 x 44.78 103.64 56.84 30.0 x x x x x 5.59 SW No 0.000 Unidentified Slight     0.000 0.000 0.000 0.827 0.000 32.27 Unknown
06/24/2022 07:15 AM 78.98 x 44.78 103.64 56.84 30.0 x x x x x 5.59 SW No 0.000 Unidentified Slight     0.000 0.000 0.000 0.827 0.000 32.02 Unknown
06/24/2022 07:16 AM 78.98 x 44.78 103.64 56.84 30.0 x x x x x 5.59 SW No 0.000 Unidentified Slight     0.000 0.000 0.000 0.827 0.000 29.20 Unknown
06/24/2022 07:17 AM 78.98 x 44.78 103.64 56.84 30.0 x x x x x 5.59 SW No 0.000 Unidentified Slight     0.000 0.000 0.000 0.827 0.000 30.39 Unknown
06/24/2022 07:18 AM 78.98 x 43.88 103.64 56.84 29.0 x x x x x 5.59 SW No 0.000 Unidentified Slight     0.000 0.000 0.000 0.827 0.000 30.39 Unknown
06/24/2022 07:19 AM 78.98 x 44.78 103.64 56.84 30.0 x x x x x 5.59 SW No 0.000 Unidentified Slight     0.000 0.000 0.000 0.827 0.000 31.77 Unknown
06/24/2022 07:20 AM 79.16 x 44.06 103.64 56.84 29.0 x x x x x 5.59 SW No 0.000 Unidentified Slight     0.000 0.000 0.000 0.827 0.000 31.18 Unknown
06/24/2022 07:22 AM 79.34 x 45.14 103.64 56.84 30.0 x x x x x 5.59 SW No 0.000 Unidentified Slight     0.000 0.000 0.000 0.827 0.000 37.02 Unknown
06/24/2022 07:23 AM 79.34 x 45.14 103.64 56.84 30.0 x x x x x 5.37 SW No 0.000 Unidentified Slight     0.000 0.000 0.000 0.827 0.000 32.83 Unknown
06/24/2022 07:24 AM 79.52 x 45.32 103.64 56.84 30.0 x x x x x 5.37 SW No 0.000 Unidentified Slight     0.000 0.000 0.000 0.827 0.000 28.47 Unknown
06/24/2022 07:25 AM 79.70 x 45.50 103.64 56.84 30.0 x x x x x 5.37 SW No 0.000 Unidentified Slight     0.000 0.000 0.000 0.827 0.000 31.61 Unknown
06/24/2022 07:26 AM 79.70 x 44.60 103.64 56.84 29.0 x x x x x 5.14 SW No 0.000 Unidentified Slight     0.000 0.000 0.000 0.827 0.000 31.30 Unknown
06/24/2022 07:27 AM 79.70 x 44.60 103.64 56.84 29.0 x x x x x 5.14 SW No 0.000 Unidentified Slight     0.000 0.000 0.000 0.827 0.000 29.26 Unknown
06/24/2022 07:28 AM 80.06 x 44.96 103.64 56.84 29.0 x x x x x 5.14 SW No 0.000 Unidentified Slight     0.000 0.000 0.000 0.827 0.000 31.76 Unknown
06/24/2022 07:29 AM 80.24 x 45.14 103.64 56.84 29.0 x x x x x 5.59 SW No 0.000 Unidentified Slight     0.000 0.000 0.000 0.827 0.000 28.12 Unknown
06/24/2022 07:30 AM 80.24 x 44.06 103.64 56.84 28.0 x x x x x 6.93 SW No 0.000 Unidentified Slight     0.000 0.000 0.000 0.827 0.000 29.04 Unknown
06/24/2022 07:31 AM 80.06 x 44.06 103.64 56.84 28.0 x x x x x 6.93 SW No 0.000 Unidentified Slight     0.000 0.000 0.000 0.827 0.000 32.38 Unknown
06/24/2022 07:32 AM 80.24 x 44.06 103.64 56.84 28.0 x x x x x 8.28 SW No 0.000 Unidentified Slight     0.000 0.000 0.000 0.827 0.000 29.96 Unknown
06/24/2022 07:33 AM 80.06 x 44.06 103.64 56.84 28.0 x x x x x 8.95 SW No 0.000 Unidentified Slight     0.000 0.000 0.000 0.827 0.000 30.41 Unknown
06/24/2022 07:34 AM 79.88 x 43.88 103.64 56.84 28.0 x x x x x 8.95 SW No 0.000 Unidentified Slight     0.000 0.000 0.000 0.827 0.000 29.97 Unknown
06/24/2022 07:35 AM 80.06 x 44.06 103.64 56.84 28.0 x x x x x 8.95 SW No 0.000 Unidentified Slight     0.000 0.000 0.000 0.827 0.000 28.97 Unknown
06/24/2022 07:36 AM 80.42 x 44.24 103.64 56.84 28.0 x x x x x 8.95 SW No 0.000 Unidentified Slight     0.000 0.000 0.000 0.827 0.000 34.94 Unknown
06/24/2022 07:37 AM 80.42 x 44.24 103.64 56.84 28.0 x x x x x 8.95 SW No 0.000 Unidentified Slight     0.000 0.000 0.000 0.827 0.000 30.31 Unknown
06/24/2022 07:38 AM 80.24 x 44.06 103.64 56.84 28.0 x x x x x 9.17 SW No 0.000 Unidentified Slight     0.000 0.000 0.000 0.827 0.000 28.60 Unknown
06/24/2022 07:39 AM 80.24 x 44.06 103.64 56.84 28.0 x x x x x 9.17 SW No 0.000 Unidentified Slight     0.000 0.000 0.000 0.827 0.000 29.66 Unknown
06/24/2022 07:40 AM 80.42 x 44.24 103.64 56.84 28.0 x x x x x 9.17 SW No 0.000 Unidentified Slight     0.000 0.000 0.000 0.827 0.000 35.19 Unknown
06/24/2022 07:41 AM 80.42 x 44.24 103.64 56.84 28.0 x x x x x 9.17 SW No 0.000 Unidentified Slight     0.000 0.000 0.000 0.827 0.000 33.18 Unknown
06/24/2022 07:42 AM 80.60 x 44.42 103.64 56.84 28.0 x x x x x 9.17 SW No 0.000 Unidentified Slight     0.000 0.000 0.000 0.827 0.000 29.64 Unknown
06/24/2022 07:43 AM 80.60 x 44.42 103.64 56.84 28.0 x x x x x 9.40 SW No 0.000 Unidentified Slight     0.000 0.000 0.000 0.827 0.000 29.28 Unknown
06/24/2022 07:44 AM 80.60 x 44.42 103.64 56.84 28.0 x x x x x 9.40 SW No 0.000 Unidentified Slight     0.000 0.000 0.000 0.827 0.000 30.00 Unknown
06/24/2022 07:45 AM 80.96 x 43.88 103.64 56.84 27.0 x x x x x 9.40 SW No 0.000 Unidentified Slight     0.000 0.000 0.000 0.827 0.000 32.31 Unknown
06/24/2022 07:46 AM 80.78 x 43.70 103.64 56.84 27.0 x x x x x 9.40 SW No 0.000 Unidentified Slight     0.000 0.000 0.000 0.827 0.000 33.97 Unknown
06/24/2022 07:47 AM 80.78 x 44.60 103.64 56.84 28.0 x x x x x 9.40 SW No 0.000 Unidentified Slight     0.000 0.000 0.000 0.827 0.000 26.64 Unknown
06/24/2022 07:48 AM 81.14 x 43.88 103.64 56.84 27.0 x x x x x 9.40 SW No 0.000 Unidentified Slight     0.000 0.000 0.000 0.827 0.000 28.75 Unknown
06/24/2022 07:49 AM 80.78 x 44.60 103.64 56.84 28.0 x x x x x 9.40 SW No 0.000 Unidentified Slight     0.000 0.000 0.000 0.827 0.000 33.12 Unknown
06/24/2022 07:50 AM 80.96 x 44.78 103.64 56.84 28.0 x x x x x 9.40 SW No 0.000 Unidentified Slight     0.000 0.000 0.000 0.827 0.000 28.44 Unknown
06/24/2022 07:51 AM 81.14 x 44.96 103.64 56.84 28.0 x x x x x 9.40 SW No 0.000 Unidentified Slight     0.000 0.000 0.000 0.827 0.000 31.98 Unknown
06/24/2022 07:52 AM 81.32 x 44.06 103.64 56.84 27.0 x x x x x 9.17 SW No 0.000 Unidentified Slight     0.000 0.000 0.000 0.827 0.000 28.70 Unknown
06/24/2022 07:53 AM 81.14 x 43.88 103.64 56.84 27.0 x x x x x 9.17 SW No 0.000 Unidentified Slight     0.000 0.000 0.000 0.827 0.000 31.82 Unknown
06/24/2022 07:54 AM 80.96 x 44.78 103.64 56.84 28.0 x x x x x 9.17 SW No 0.000 Unidentified Slight     0.000 0.000 0.000 0.827 0.000 34.77 Unknown
06/24/2022 07:55 AM 81.14 x 43.88 103.64 56.84 27.0 x x x x x 8.50 SW No 0.000 Unidentified Slight     0.000 0.000 0.000 0.827 0.000 29.65 Unknown
06/24/2022 07:56 AM 81.32 x 44.06 103.64 56.84 27.0 x x x x x 8.50 SW No 0.000 Unidentified Slight     0.000 0.000 0.000 0.827 0.000 31.29 Unknown
06/24/2022 07:57 AM 81.32 x 44.06 103.64 56.84 27.0 x x x x x 8.50 SW No 0.000 Unidentified Slight     0.000 0.000 0.000 0.827 0.000 31.72 Unknown
06/24/2022 07:58 AM 81.50 x 44.24 103.64 56.84 27.0 x x x x x 8.50 SW No 0.000 Unidentified Slight     0.000 0.000 0.000 0.827 0.000 31.35 Unknown
06/24/2022 07:59 AM 81.68 x 44.42 103.64 56.84 27.0 x x x x x 8.50 SW No 0.000 Unidentified Slight     0.000 0.000 0.000 0.827 0.000 30.87 Unknown
06/24/2022 08:00 AM 81.86 x 44.60 103.64 56.84 27.0 x x x x x 8.50 SW No 0.000 Unidentified Slight     0.000 0.000 0.000 0.827 0.000 30.45 Unknown
06/24/2022 08:01 AM 81.86 x 44.60 103.64 56.84 27.0 x x x x x 8.05 SW No 0.000 Unidentified Slight     0.000 0.000 0.000 0.827 0.000 29.68 Unknown
06/24/2022 08:02 AM 82.04 x 44.78 103.64 56.84 27.0 x x x x x 7.61 SW No 0.000 Unidentified Slight     0.000 0.000 0.000 0.827 0.000 30.11 Unknown
06/24/2022 08:03 AM 82.22 x 44.78 103.64 56.84 27.0 x x x x x 7.61 SW No 0.000 Unidentified Slight     0.000 0.000 0.000 0.827 0.000 30.49 Unknown
06/24/2022 08:04 AM 82.22 x 43.88 103.64 56.84 26.0 x x x x x 7.61 SW No 0.000 Unidentified Slight     0.000 0.000 0.000 0.827 0.000 39.21 Unknown
06/24/2022 08:05 AM 82.04 x 43.70 103.64 56.84 26.0 x x x x x 8.05 SW No 0.000 Unidentified Slight     0.000 0.000 0.000 0.827 0.000 27.04 Unknown
06/24/2022 08:06 AM 82.04 x 43.70 103.64 56.84 26.0 x x x x x 8.05 SW No 0.000 Unidentified Slight     0.000 0.000 0.000 0.827 0.000 35.82 Unknown
06/24/2022 08:07 AM 81.86 x 43.52 103.64 56.84 26.0 x x x x x 8.05 SW No 0.000 Unidentified Slight     0.000 0.000 0.000 0.827 0.000 26.67 Unknown
06/24/2022 08:08 AM 82.04 x 43.70 103.64 56.84 26.0 x x x x x 8.05 SW No 0.000 Unidentified Slight     0.000 0.000 0.000 0.827 0.000 31.70 Unknown
06/24/2022 08:09 AM 82.04 x 43.70 103.64 56.84 26.0 x x x x x 8.05 SW No 0.000 Unidentified Slight     0.000 0.000 0.000 0.827 0.000 26.22 Unknown
06/24/2022 08:10 AM 82.04 x 43.70 103.64 56.84 26.0 x x x x x 8.05 SW No 0.000 Unidentified Slight     0.000 0.000 0.000 0.827 0.000 33.04 Unknown
06/24/2022 08:11 AM 82.22 x 43.88 103.64 56.84 26.0 x x x x x 8.05 SW No 0.000 Unidentified Slight     0.000 0.000 0.000 0.827 0.000 30.81 Unknown
06/24/2022 08:13 AM 82.40 x 42.98 103.64 56.84 25.0 x x x x x 8.05 SW No 0.000 Unidentified Slight     0.000 0.000 0.000 0.827 0.000 36.00 Unknown
06/24/2022 08:14 AM 82.04 x 43.70 103.64 56.84 26.0 x x x x x 6.71 SW No 0.000 Unidentified Slight     0.000 0.000 0.000 0.827 0.000 30.77 Unknown
06/24/2022 08:15 AM 82.22 x 43.88 103.64 56.84 26.0 x x x x x 6.71 SW No 0.000 Unidentified Slight     0.000 0.000 0.000 0.827 0.000 33.25 Unknown
06/24/2022 08:17 AM 82.76 x 43.34 103.64 56.84 25.0 x x x x x 6.71 SW No 0.000 Unidentified Slight     0.000 0.000 0.000 0.827 0.000 31.55 Unknown
06/24/2022 08:18 AM 82.94 x 43.52 103.64 56.84 25.0 x x x x x 6.71 SW No 0.000 Unidentified Slight     0.000 0.000 0.000 0.827 0.000 26.54 Unknown
06/24/2022 08:19 AM 82.94 x 43.52 103.64 56.84 25.0 x x x x x 6.71 SW No 0.000 Unidentified Slight     0.000 0.000 0.000 0.827 0.000 32.07 Unknown
06/24/2022 08:20 AM 82.76 x 43.34 103.64 56.84 25.0 x x x x x 6.49 SW No 0.000 Unidentified Slight     0.000 0.000 0.000 0.827 0.000 30.85 Unknown
06/24/2022 08:21 AM 82.40 x 42.98 103.64 56.84 25.0 x x x x x 5.14 SW No 0.000 Unidentified Slight     0.000 0.000 0.000 0.827 0.000 27.45 Unknown
06/24/2022 08:22 AM 82.40 x 44.06 103.64 56.84 26.0 x x x x x 4.92 SW No 0.000 Unidentified Slight     0.000 0.000 0.000 0.827 0.000 27.56 Unknown
06/24/2022 08:23 AM 82.58 x 44.24 103.64 56.84 26.0 x x x x x 4.92 SW No 0.000 Unidentified Slight     0.000 0.000 0.000 0.827 0.000 29.65 Unknown
06/24/2022 08:24 AM 82.76 x 43.34 103.64 56.84 25.0 x x x x x 4.92 SW No 0.000 Unidentified Slight     0.000 0.000 0.000 0.827 0.000 29.65 Unknown
06/24/2022 08:25 AM 82.94 x 43.52 103.64 56.84 25.0 x x x x x 4.92 SW No 0.000 Unidentified Slight     0.000 0.000 0.000 0.827 0.000 35.67 Unknown
06/24/2022 08:26 AM 82.94 x 43.52 103.64 56.84 25.0 x x x x x 4.92 SW No 0.000 Unidentified Slight     0.000 0.000 0.000 0.827 0.000 27.46 Unknown
06/24/2022 08:27 AM 83.30 x 43.70 103.64 56.84 25.0 x x x x x 4.92 SW No 0.000 Unidentified Slight     0.000 0.000 0.000 0.827 0.000 29.09 Unknown
06/24/2022 08:28 AM 83.30 x 43.70 103.64 56.84 25.0 x x x x x 4.92 SW No 0.000 Unidentified Slight     0.000 0.000 0.000 0.827 0.000 30.31 Unknown
06/24/2022 08:29 AM 83.30 x 43.70 103.64 56.84 25.0 x x x x x 4.25 SW No 0.000 Unidentified Slight     0.000 0.000 0.000 0.827 0.000 28.63 Unknown
06/24/2022 08:30 AM 83.30 x 43.70 103.64 56.84 25.0 x x x x x 4.25 SW No 0.000 Unidentified Slight     0.000 0.000 0.000 0.827 0.000 32.31 Unknown
06/24/2022 08:31 AM 83.48 x 43.88 103.64 56.84 25.0 x x x x x 4.25 SW No 0.000 Unidentified Slight     0.000 0.000 0.000 0.827 0.000 27.93 Unknown
06/24/2022 08:32 AM 83.66 x 44.06 103.64 56.84 25.0 x x x x x 4.25 SW No 0.000 Unidentified Slight     0.000 0.000 0.000 0.827 0.000 37.78 Unknown
06/24/2022 08:33 AM 83.66 x 44.06 103.64 56.84 25.0 x x x x x 3.58 SW No 0.000 Unidentified Slight     0.000 0.000 0.000 0.827 0.000 29.22 Unknown
06/24/2022 08:34 AM 83.48 x 43.88 103.64 56.84 25.0 x x x x x 3.58 SW No 0.000 Unidentified Slight     0.000 0.000 0.000 0.827 0.000 33.84 Unknown
06/24/2022 08:35 AM 83.66 x 44.06 103.64 56.84 25.0 x x x x x 3.58 SW No 0.000 Unidentified Slight     0.000 0.000 0.000 0.827 0.000 28.67 Unknown
06/24/2022 08:36 AM 83.66 x 44.06 103.64 56.84 25.0 x x x x x 3.58 SW No 0.000 Unidentified Slight     0.000 0.000 0.000 0.827 0.000 30.45 Unknown
06/24/2022 08:37 AM 83.84 x 44.24 103.64 56.84 25.0 x x x x x 3.36 SW No 0.000 Unidentified Slight     0.000 0.000 0.000 0.827 0.000 27.97 Unknown
06/24/2022 08:39 AM 84.20 x 44.60 103.64 56.84 25.0 x x x x x 3.36 SW No 0.000 Unidentified Slight     0.000 0.000 0.000 0.827 0.000 29.58 Unknown
06/24/2022 08:40 AM 84.38 x 43.52 103.64 56.84 24.0 x x x x x 3.36 SW No 0.000 Unidentified Slight     0.000 0.000 0.000 0.827 0.000 34.74 Unknown
06/24/2022 08:41 AM 84.38 x 44.60 103.64 56.84 25.0 x x x x x 3.13 SW No 0.000 Unidentified Slight     0.000 0.000 0.000 0.827 0.000 28.85 Unknown
06/24/2022 08:42 AM 84.20 x 43.52 103.64 56.84 24.0 x x x x x 3.13 SW No 0.000 Unidentified Slight     0.000 0.000 0.000 0.827 0.000 28.04 Unknown
06/24/2022 08:43 AM 84.20 x 44.60 103.64 56.84 25.0 x x x x x 2.68 SW No 0.000 Unidentified Slight     0.000 0.000 0.000 0.827 0.000 30.97 Unknown
06/24/2022 08:44 AM 84.38 x 44.60 103.64 56.84 25.0 x x x x x 2.46 SW No 0.000 Unidentified Slight     0.000 0.000 0.000 0.827 0.000 38.24 Unknown
06/24/2022 08:45 AM 84.74 x 43.88 103.64 56.84 24.0 x x x x x 2.91 SW No 0.000 Unidentified Slight     0.000 0.000 0.000 0.827 0.000 18.75 Unknown
06/24/2022 08:46 AM 84.92 x 45.14 103.64 56.84 25.0 x x x x x 5.59 SW No 0.000 Unidentified Slight     0.000 0.000 0.000 0.827 0.000 31.30 Unknown
06/24/2022 08:47 AM 84.56 x 43.70 103.64 56.84 24.0 x x x x x 5.59 SW No 0.000 Unidentified Slight     0.000 0.000 0.000 0.827 0.000 30.62 Unknown
06/24/2022 08:48 AM 84.20 x 43.52 103.64 56.84 24.0 x x x x x 5.59 SW No 0.000 Unidentified Slight     0.000 0.000 0.000 0.827 0.000 23.89 Unknown
06/24/2022 08:49 AM 84.38 x 44.60 103.64 56.84 25.0 x x x x x 5.59 SW No 0.000 Unidentified Slight     0.000 0.000 0.000 0.827 0.000 26.55 Unknown
06/24/2022 08:50 AM 84.92 x 44.06 103.64 56.84 24.0 x x x x x 5.59 SW No 0.000 Unidentified Slight     0.000 0.000 0.000 0.827 0.000 29.07 Unknown
06/24/2022 08:52 AM 84.92 x 44.06 103.64 56.84 24.0 x x x x x 5.59 SW No 0.000 Unidentified Slight     0.000 0.000 0.000 0.827 0.000 28.01 Unknown
06/24/2022 08:53 AM 84.92 x 44.06 103.64 56.84 24.0 x x x x x 5.59 SW No 0.000 Unidentified Slight     0.000 0.000 0.000 0.827 0.000 29.15 Unknown
06/24/2022 08:54 AM 84.92 x 44.06 103.64 56.84 24.0 x x x x x 5.59 SW No 0.000 Unidentified Slight     0.000 0.000 0.000 0.827 0.000 30.64 Unknown
06/24/2022 08:55 AM 85.28 x 44.42 103.64 56.84 24.0 x x x x x 5.14 SW No 0.000 Unidentified Slight     0.000 0.000 0.000 0.827 0.000 25.57 Unknown
06/24/2022 08:56 AM 85.10 x 44.24 103.64 56.84 24.0 x x x x x 5.14 SW No 0.000 Unidentified Slight     0.000 0.000 0.000 0.827 0.000 32.77 Unknown
06/24/2022 08:57 AM 85.46 x 44.60 103.64 56.84 24.0 x x x x x 5.14 SW No 0.000 Unidentified Slight     0.000 0.000 0.000 0.827 0.000 26.41 Unknown
06/24/2022 08:58 AM 86.00 x 44.96 103.64 56.84 24.0 x x x x x 5.14 SW No 0.000 Unidentified Slight     0.000 0.000 0.000 0.827 0.000 23.80 Unknown
06/24/2022 08:59 AM 85.82 x 44.78 103.64 56.84 24.0 x x x x x 5.14 SW No 0.000 Unidentified Slight     0.000 0.000 0.000 0.827 0.000 24.01 Unknown
06/24/2022 09:00 AM 86.00 x 44.96 103.64 56.84 24.0 x x x x x 5.14 SW No 0.000 Unidentified Slight     0.000 0.000 0.000 0.827 0.000 30.84 Unknown
06/24/2022 09:01 AM 86.18 x 45.14 103.64 56.84 24.0 x x x x x 5.14 SW No 0.000 Unidentified Slight     0.000 0.000 0.000 0.827 0.000 28.43 Unknown
06/24/2022 09:02 AM 86.72 x 45.50 103.64 56.84 24.0 x x x x x 5.14 SW No 0.000 Unidentified Slight     0.000 0.000 0.000 0.827 0.000 27.59 Unknown
06/24/2022 09:03 AM 87.44 x 44.96 103.64 56.84 23.0 x x x x x 6.49 SW No 0.000 Unidentified Slight     0.000 0.000 0.000 0.827 0.000 27.26 Unknown
06/24/2022 09:04 AM 87.62 x 44.06 103.64 56.84 22.0 x x x x x 6.71 SW No 0.000 Unidentified Slight     0.000 0.000 0.000 0.827 0.000 31.93 Unknown
06/24/2022 09:05 AM 87.62 x 44.06 103.64 56.84 22.0 x x x x x 7.16 SW No 0.000 Unidentified Slight     0.000 0.000 0.000 0.827 0.000 30.22 Unknown
06/24/2022 09:07 AM 86.90 x 43.52 103.64 56.84 22.0 x x x x x 9.17 SW No 0.000 Unidentified Slight     0.000 0.000 0.000 0.827 0.000 29.79 Unknown
06/24/2022 09:08 AM 87.62 x 45.14 103.64 56.84 23.0 x x x x x 9.17 SW No 0.000 Unidentified Slight     0.000 0.000 0.000 0.827 0.000 30.49 Unknown
06/24/2022 09:09 AM 88.16 x 44.42 103.64 56.84 22.0 x x x x x 9.17 SW No 0.000 Unidentified Slight     0.000 0.000 0.000 0.827 0.000 36.62 Unknown
06/24/2022 09:10 AM 87.80 x 44.24 103.64 56.84 22.0 x x x x x 9.17 SW No 0.000 Unidentified Slight     0.000 0.000 0.000 0.827 0.000 31.18 Unknown
06/24/2022 09:12 AM 88.16 x 44.42 103.64 56.84 22.0 x x x x x 9.17 SW No 0.000 Unidentified Slight     0.000 0.000 0.000 0.827 0.000 32.58 Unknown
06/24/2022 09:13 AM 88.52 x 44.78 103.64 56.84 22.0 x x x x x 9.17 SW No 0.000 Unidentified Slight     0.000 0.000 0.000 0.827 0.000 27.39 Unknown
06/24/2022 09:14 AM 88.88 x 45.14 103.64 56.84 22.0 x x x x x 9.62 SW No 0.000 Unidentified Slight     0.000 0.000 0.000 0.827 0.000 31.49 Unknown
06/24/2022 09:15 AM 88.88 x 43.88 103.64 56.84 21.0 x x x x x 10.07 SW No 0.000 Unidentified Slight     0.000 0.000 0.000 0.827 0.000 30.83 Unknown
06/24/2022 09:16 AM 88.34 x 43.34 103.64 56.84 21.0 x x x x x 10.07 SW No 0.000 Unidentified Slight     0.000 0.000 0.000 0.827 0.000 28.85 Unknown
06/24/2022 09:17 AM 87.62 x 44.06 103.64 56.84 22.0 x x x x x 10.07 SW No 0.000 Unidentified Slight     0.000 0.000 0.000 0.827 0.000 31.17 Unknown
06/24/2022 09:18 AM 88.16 x 44.42 103.64 56.84 22.0 x x x x x 10.07 SW No 0.000 Unidentified Slight     0.000 0.000 0.000 0.827 0.000 28.26 Unknown
06/24/2022 09:19 AM 88.34 x 43.34 103.64 56.84 21.0 x x x x x 10.07 SW No 0.000 Unidentified Slight     0.000 0.000 0.000 0.827 0.000 29.14 Unknown
06/24/2022 09:20 AM 88.70 x 44.96 103.64 56.84 22.0 x x x x x 10.07 SW No 0.000 Unidentified Slight     0.000 0.000 0.000 0.827 0.000 26.85 Unknown
06/24/2022 09:21 AM 88.70 x 44.96 103.64 56.84 22.0 x x x x x 10.07 SW No 0.000 Unidentified Slight     0.000 0.000 0.000 0.827 0.000 36.01 Unknown
06/24/2022 09:22 AM 88.88 x 43.88 103.64 56.84 21.0 x x x x x 10.07 SW No 0.000 Unidentified Slight     0.000 0.000 0.000 0.827 0.000 28.58 Unknown
06/24/2022 09:23 AM 88.52 x 43.52 103.64 56.84 21.0 x x x x x 10.07 SW No 0.000 Unidentified Slight     0.000 0.000 0.000 0.827 0.000 30.33 Unknown
06/24/2022 09:24 AM 88.88 x 43.88 103.64 56.84 21.0 x x x x x 10.07 SW No 0.000 Unidentified Slight     0.000 0.000 0.000 0.827 0.000 25.88 Unknown
06/24/2022 09:25 AM 88.70 x 43.70 103.64 56.84 21.0 x x x x x 10.07 SW No 0.000 Unidentified Slight     0.000 0.000 0.000 0.827 0.000 27.87 Unknown
06/24/2022 09:26 AM 88.52 x 43.52 103.64 56.84 21.0 x x x x x 12.08 SW No 0.000 Unidentified Slight     0.000 0.000 0.000 0.827 0.000 33.00 Unknown
06/24/2022 09:28 AM 88.34 x 43.34 103.64 56.84 21.0 x x x x x 12.08 SW No 0.000 Unidentified Slight     0.000 0.000 0.000 0.827 0.000 27.93 Unknown
06/24/2022 09:29 AM 89.06 x 44.06 103.64 56.84 21.0 x x x x x 12.08 SW No 0.000 Unidentified Slight     0.000 0.000 0.000 0.827 0.000 30.77 Unknown
06/24/2022 09:30 AM 89.06 x 44.06 103.64 56.84 21.0 x x x x x 12.08 SW No 0.000 Unidentified Slight     0.000 0.000 0.000 0.827 0.000 27.50 Unknown
06/24/2022 09:31 AM 89.06 x 44.06 103.64 56.84 21.0 x x x x x 12.08 SW No 0.000 Unidentified Slight     0.000 0.000 0.000 0.827 0.000 25.28 Unknown
06/24/2022 09:32 AM 89.06 x 44.06 103.64 56.84 21.0 x x x x x 12.08 SW No 0.000 Unidentified Slight     0.000 0.000 0.000 0.827 0.000 28.26 Unknown
06/24/2022 09:33 AM 89.24 x 44.24 103.64 56.84 21.0 x x x x x 12.08 SW No 0.000 Unidentified Slight     0.000 0.000 0.000 0.827 0.000 31.13 Unknown
06/24/2022 09:34 AM 89.24 x 44.24 103.64 56.84 21.0 x x x x x 12.08 SW No 0.000 Unidentified Slight     0.000 0.000 0.000 0.827 0.000 27.10 Unknown
06/24/2022 09:35 AM 89.06 x 44.06 103.64 56.84 21.0 x x x x x 11.86 SW No 0.000 Unidentified Slight     0.000 0.000 0.000 0.827 0.000 26.49 Unknown
06/24/2022 09:36 AM 89.78 x 44.60 103.64 56.84 21.0 x x x x x 11.86 SW No 0.000 Unidentified Slight     0.000 0.000 0.000 0.827 0.000 26.33 Unknown
06/24/2022 09:37 AM 89.60 x 44.42 103.64 56.84 21.0 x x x x x 11.86 SW No 0.000 Unidentified Slight     0.000 0.000 0.000 0.827 0.000 23.00 Unknown
06/24/2022 09:38 AM 89.96 x 44.78 103.64 56.84 21.0 x x x x x 11.63 SW No 0.000 Unidentified Slight     0.000 0.000 0.000 0.827 0.000 26.60 Unknown
06/24/2022 09:39 AM 90.32 x 43.70 103.64 56.84 20.0 x x x x x 11.41 SW No 0.000 Unidentified Slight     0.000 0.000 0.000 0.827 0.000 28.23 Unknown
06/24/2022 09:40 AM 89.78 x 43.34 103.64 56.84 20.0 x x x x x 11.41 SW No 0.000 Unidentified Slight     0.000 0.000 0.000 0.827 0.000 23.26 Unknown
06/24/2022 09:41 AM 89.60 x 44.42 103.64 56.84 21.0 x x x x x 12.53 SW No 0.000 Unidentified Slight     0.000 0.000 0.000 0.827 0.000 26.98 Unknown
06/24/2022 09:42 AM 89.06 x 44.06 103.64 56.84 21.0 x x x x x 12.53 SW No 0.000 Unidentified Slight     0.000 0.000 0.000 0.827 0.000 29.92 Unknown
06/24/2022 09:43 AM 89.06 x 42.80 103.64 56.84 20.0 x x x x x 12.53 SW No 0.000 Unidentified Slight     0.000 0.000 0.000 0.827 0.000 32.15 Unknown
06/24/2022 09:44 AM 89.06 x 44.06 103.64 56.84 21.0 x x x x x 12.53 SW No 0.000 Unidentified Slight     0.000 0.000 0.000 0.827 0.000 28.98 Unknown
06/24/2022 09:46 AM 89.78 x 44.60 103.64 56.84 21.0 x x x x x 12.53 SW No 0.000 Unidentified Slight     0.000 0.000 0.000 0.827 0.000 28.24 Unknown
06/24/2022 09:47 AM 90.32 x 44.96 103.64 56.84 21.0 x x x x x 12.53 SW No 0.000 Unidentified Slight     0.000 0.000 0.000 0.827 0.000 32.89 Unknown
06/24/2022 09:48 AM 90.86 x 45.50 103.64 56.84 21.0 x x x x x 12.53 SW No 0.000 Unidentified Slight     0.000 0.000 0.000 0.827 0.000 36.47 Unknown
06/24/2022 09:49 AM 90.32 x 43.70 103.64 56.84 20.0 x x x x x 12.53 SW No 0.000 Unidentified Slight     0.000 0.000 0.000 0.827 0.000 29.02 Unknown
06/24/2022 09:51 AM 89.96 x 44.78 103.64 56.84 21.0 x x x x x 12.30 SW No 0.000 Unidentified Slight     0.000 0.000 0.000 0.827 0.000 23.49 Unknown
06/24/2022 09:52 AM 89.78 x 43.34 103.64 56.84 20.0 x x x x x 12.30 SW No 0.000 Unidentified Slight     0.000 0.000 0.000 0.827 0.000 26.00 Unknown
06/24/2022 09:53 AM 90.32 x 43.70 103.64 56.84 20.0 x x x x x 12.30 SW No 0.000 Unidentified Slight     0.000 0.000 0.000 0.827 0.000 31.70 Unknown
06/24/2022 09:55 AM 90.14 x 43.70 103.64 56.84 20.0 x x x x x 12.30 SW No 0.000 Unidentified Slight     0.000 0.000 0.000 0.827 0.000 33.02 Unknown
06/24/2022 09:56 AM 89.96 x 44.78 103.64 56.84 21.0 x x x x x 12.30 SW No 0.000 Unidentified Slight     0.000 0.000 0.000 0.827 0.000 33.76 Unknown
06/24/2022 09:57 AM 90.14 x 43.70 103.64 56.84 20.0 x x x x x 12.30 SW No 0.000 Unidentified Slight     0.000 0.000 0.000 0.827 0.000 33.68 Unknown
06/24/2022 09:58 AM 89.60 x 43.16 103.64 56.84 20.0 x x x x x 11.41 SW No 0.000 Unidentified Slight     0.000 0.000 0.000 0.827 0.000 36.32 Unknown
06/24/2022 09:59 AM 89.60 x 44.42 103.64 56.84 21.0 x x x x x 11.41 SW No 0.000 Unidentified Slight     0.000 0.000 0.000 0.827 0.000 24.46 Unknown
06/24/2022 10:00 AM 89.96 x 43.52 103.64 56.84 20.0 x x x x x 12.53 SW No 0.000 Unidentified Slight     0.000 0.000 0.000 0.827 0.000 25.47 Unknown
06/24/2022 10:01 AM 89.60 x 43.16 103.64 56.84 20.0 x x x x x 12.53 SW No 0.000 Unidentified Slight     0.000 0.000 0.000 0.827 0.000 29.02 Unknown
06/24/2022 10:02 AM 89.60 x 43.16 103.64 56.84 20.0 x x x x x 13.65 SW No 0.000 Unidentified Slight     0.000 0.000 0.000 0.827 0.000 26.01 Unknown
06/24/2022 10:04 AM 89.96 x 43.52 103.64 56.84 20.0 x x x x x 13.65 SW No 0.000 Unidentified Slight     0.000 0.000 0.000 0.827 0.000 34.43 Unknown
06/24/2022 10:05 AM 89.96 x 43.52 103.64 56.84 20.0 x x x x x 13.65 SW No 0.000 Unidentified Slight     0.000 0.000 0.000 0.827 0.000 30.62 Unknown
06/24/2022 10:06 AM 89.78 x 43.34 103.64 56.84 20.0 x x x x x 13.65 SW No 0.000 Unidentified Slight     0.000 0.000 0.000 0.827 0.000 28.79 Unknown
06/24/2022 10:07 AM 90.14 x 43.70 103.64 56.84 20.0 x x x x x 13.65 SW No 0.000 Unidentified Slight     0.000 0.000 0.000 0.827 0.000 29.01 Unknown
06/24/2022 10:08 AM 90.14 x 43.70 103.64 56.84 20.0 x x x x x 13.65 SW No 0.000 Unidentified Slight     0.000 0.000 0.000 0.827 0.000 30.75 Unknown
06/24/2022 10:09 AM 90.14 x 43.70 103.64 56.84 20.0 x x x x x 13.65 SW No 0.000 Unidentified Slight     0.000 0.000 0.000 0.827 0.000 32.02 Unknown
06/24/2022 10:10 AM 91.04 x 44.42 103.64 56.84 20.0 x x x x x 13.65 SW No 0.000 Unidentified Slight     0.000 0.000 0.000 0.827 0.000 27.52 Unknown
06/24/2022 10:11 AM 91.22 x 44.42 103.64 56.84 20.0 x x x x x 13.65 SW No 0.000 Unidentified Slight     0.000 0.000 0.000 0.827 0.000 30.02 Unknown
06/24/2022 10:12 AM 90.86 x 44.24 103.64 56.84 20.0 x x x x x 13.65 SW No 0.000 Unidentified Slight     0.000 0.000 0.000 0.827 0.000 34.00 Unknown
06/24/2022 10:13 AM 90.86 x 44.24 103.64 56.84 20.0 x x x x x 13.65 SW No 0.000 Unidentified Slight     0.000 0.000 0.000 0.827 0.000 28.42 Unknown
06/24/2022 10:15 AM 90.86 x 42.80 103.64 56.84 19.0 x x x x x 13.65 SW No 0.000 Unidentified Slight     0.000 0.000 0.000 0.827 0.000 27.32 Unknown
06/24/2022 10:16 AM 90.50 x 43.88 103.64 56.84 19.0 x x x x x 13.20 SW No 0.000 Unidentified Slight     0.000 0.000 0.000 0.827 0.000 34.67 Unknown
06/24/2022 10:17 AM 91.04 x 44.42 103.64 56.84 20.0 x x x x x 13.20 SW No 0.000 Unidentified Slight     0.000 0.000 0.000 0.827 0.000 32.43 Unknown
06/24/2022 10:18 AM 91.40 x 41.90 103.64 56.84 18.0 x x x x x 13.20 SW No 0.000 Unidentified Slight     0.000 0.000 0.000 0.827 0.000 34.66 Unknown
06/24/2022 10:19 AM 90.50 x 42.62 103.64 56.84 19.0 x x x x x 13.20 SW No 0.000 Unidentified Slight     0.000 0.000 0.000 0.827 0.000 32.85 Unknown
06/24/2022 10:20 AM 91.58 x 43.52 103.64 56.84 19.0